[[{"header":{"parameterUnit":"m.s-1","parameterCategory":1,"la1":30.6,"la2":29.2853,"lo1":-89.7004,"lo2":-87.6739,"dx":0.0162,"dy":0.0183,"nx":112,"ny":82,"refTime":"2023-01-06T18:00:00:Z","depth":0,"parameterNumber":2,"parameterNumberName":"U-component_of_WINDS"},"data":[0.0,0.0,0.0,0.0,0.0,0.0,0.0,0.0,0.0,0.0,0.0,0.0,0.0,0.0,0.0,0.0,0.0,0.0,0.0,0.0,0.0,0.0,0.0,0.0,0.0,0.0,0.0,0.0,0.0,0.0,0.0,0.0,0.0,0.0,0.0,0.0,0.0,0.0,0.0,0.0,0.0,0.0,0.0,0.0,0.0,0.0,0.0,0.0,0.0,0.0,0.0,0.0,0.0,0.0,0.0,0.0,0.0,0.0,0.0,0.0,0.0,0.0,0.0,0.0,0.0,0.0,0.0,0.0,0.0,0.0,0.0,0.0,0.0,0.0,0.0,0.0,0.0,0.0,0.0,0.0,0.0,0.0,0.0,0.0,0.0,0.0,0.0,0.0,0.0,0.0,3.7123,3.9777,4.2124,4.3431,4.3297,4.2604,3.9892,3.4526,0.0,0.0,0.0,0.0,0.0,0.0,0.0,0.0,0.0,0.0,0.0,0.0,0.0,0.0,0.0,0.0,0.0,0.0,0.0,0.0,0.0,0.0,0.0,0.0,0.0,0.0,0.0,0.0,0.0,0.0,0.0,0.0,0.0,0.0,0.0,0.0,0.0,0.0,0.0,0.0,0.0,0.0,0.0,0.0,0.0,0.0,0.0,0.0,0.0,0.0,0.0,0.0,0.0,0.0,0.0,0.0,0.0,0.0,0.0,0.0,0.0,0.0,0.0,0.0,0.0,0.0,0.0,0.0,0.0,0.0,0.0,0.0,0.0,0.0,0.0,0.0,0.0,0.0,0.0,0.0,0.0,0.0,0.0,0.0,0.0,0.0,0.0,0.0,0.0,0.0,0.0,0.0,0.0,0.0,0.0,0.0,0.0,0.0,0.0,0.0,0.0,0.0,0.0,0.0,3.6065,4.2816,4.4547,4.4913,4.4182,4.3989,4.1143,3.4603,0.0,0.0,0.0,0.0,0.0,0.0,0.0,0.0,0.0,0.0,0.0,0.0,0.0,0.0,0.0,0.0,0.0,0.0,0.0,0.0,0.0,0.0,0.0,0.0,0.0,0.0,0.0,0.0,0.0,0.0,0.0,0.0,0.0,0.0,0.0,0.0,0.0,0.0,0.0,0.0,0.0,0.0,0.0,0.0,0.0,0.0,0.0,0.0,0.0,0.0,0.0,0.0,0.0,0.0,0.0,0.0,0.0,0.0,0.0,0.0,0.0,0.0,0.0,0.0,0.0,0.0,0.0,0.0,0.0,0.0,0.0,0.0,0.0,0.0,0.0,0.0,0.0,0.0,0.0,0.0,0.0,0.0,0.0,0.0,0.0,0.0,0.0,0.0,0.0,0.0,0.0,0.0,0.0,0.0,0.0,0.0,0.0,0.0,0.0,0.0,0.0,0.0,0.0,3.5545,3.9065,4.4432,4.5355,4.5432,4.5028,4.4566,4.1604,3.5295,3.2891,0.0,0.0,0.0,0.0,0.0,0.0,0.0,0.0,0.0,0.0,0.0,0.0,0.0,0.0,0.0,0.0,0.0,0.0,0.0,0.0,0.0,0.0,0.0,0.0,0.0,0.0,0.0,0.0,0.0,0.0,0.0,0.0,0.0,0.0,0.0,0.0,0.0,0.0,0.0,0.0,0.0,0.0,0.0,0.0,0.0,0.0,0.0,0.0,0.0,0.0,0.0,0.0,0.0,0.0,0.0,0.0,0.0,0.0,0.0,0.0,0.0,0.0,0.0,0.0,0.0,0.0,0.0,0.0,0.0,0.0,0.0,0.0,0.0,0.0,0.0,0.0,0.0,0.0,0.0,0.0,0.0,0.0,0.0,0.0,0.0,0.0,0.0,0.0,0.0,0.0,0.0,0.0,0.0,0.0,0.0,0.0,0.0,0.0,0.0,0.0,0.0,0.0,4.0315,4.2701,4.5316,4.5586,4.5586,4.5586,4.4989,4.2008,3.5892,3.368,0.0,0.0,0.0,0.0,0.0,0.0,0.0,0.0,0.0,0.0,0.0,0.0,0.0,0.0,0.0,0.0,0.0,0.0,0.0,0.0,0.0,0.0,0.0,0.0,0.0,0.0,0.0,0.0,0.0,0.0,0.0,0.0,0.0,0.0,0.0,0.0,0.0,0.0,0.0,0.0,0.0,0.0,0.0,0.0,0.0,0.0,0.0,0.0,0.0,0.0,0.0,0.0,0.0,0.0,0.0,0.0,0.0,0.0,0.0,0.0,0.0,0.0,0.0,0.0,0.0,0.0,0.0,0.0,0.0,0.0,0.0,0.0,0.0,0.0,0.0,0.0,0.0,0.0,0.0,0.0,0.0,0.0,0.0,0.0,0.0,0.0,0.0,0.0,0.0,0.0,0.0,0.0,0.0,0.0,0.0,0.0,0.0,0.0,0.0,0.0,0.0,0.0,4.1316,4.5316,4.5566,4.5586,4.5586,4.5586,4.5528,4.2643,3.593,3.5334,0.0,0.0,0.0,0.0,0.0,0.0,0.0,0.0,0.0,0.0,0.0,0.0,0.0,0.0,0.0,0.0,0.0,0.0,0.0,0.0,0.0,0.0,0.0,0.0,0.0,0.0,0.0,0.0,0.0,0.0,0.0,0.0,0.0,0.0,0.0,0.0,0.0,0.0,0.0,0.0,0.0,0.0,0.0,0.0,0.0,0.0,0.0,0.0,0.0,0.0,0.0,0.0,0.0,0.0,0.0,0.0,0.0,0.0,0.0,0.0,0.0,0.0,0.0,0.0,0.0,0.0,0.0,0.0,0.0,0.0,0.0,0.0,0.0,0.0,0.0,0.0,0.0,0.0,0.0,0.0,0.0,0.0,0.0,0.0,0.0,0.0,0.0,0.0,0.0,0.0,0.0,0.0,0.0,0.0,0.0,0.0,0.0,0.0,0.0,0.0,0.0,0.0,3.9546,4.3239,0.0,4.5586,4.5586,4.5586,4.5586,4.2701,3.593,0.0,0.0,0.0,0.0,0.0,0.0,0.0,0.0,0.0,0.0,0.0,0.0,0.0,0.0,0.0,0.0,0.0,0.0,0.0,0.0,0.0,0.0,0.0,0.0,0.0,0.0,0.0,0.0,0.0,0.0,0.0,0.0,0.0,0.0,0.0,0.0,0.0,0.0,0.0,0.0,0.0,0.0,0.0,0.0,0.0,0.0,0.0,0.0,0.0,0.0,0.0,0.0,0.0,0.0,0.0,0.0,0.0,0.0,0.0,0.0,0.0,0.0,0.0,0.0,0.0,0.0,0.0,0.0,0.0,0.0,0.0,0.0,0.0,0.0,0.0,0.0,0.0,0.0,0.0,0.0,0.0,0.0,0.0,0.0,0.0,0.0,0.0,0.0,0.0,0.0,0.0,0.0,0.0,0.0,0.0,0.0,0.0,0.0,0.0,0.0,0.0,0.0,3.4988,3.9373,4.3008,0.0,4.5586,4.5586,4.5586,4.5586,4.2701,3.593,0.0,0.0,0.0,0.0,0.0,0.0,0.0,0.0,0.0,0.0,0.0,0.0,0.0,0.0,0.0,0.0,0.0,0.0,0.0,0.0,0.0,0.0,0.0,0.0,0.0,0.0,0.0,0.0,0.0,0.0,0.0,0.0,0.0,0.0,0.0,0.0,0.0,0.0,0.0,0.0,0.0,0.0,0.0,0.0,0.0,0.0,0.0,0.0,0.0,0.0,0.0,0.0,0.0,0.0,0.0,0.0,0.0,0.0,0.0,0.0,0.0,0.0,0.0,0.0,0.0,0.0,0.0,0.0,0.0,0.0,0.0,0.0,0.0,0.0,0.0,0.0,0.0,0.0,0.0,0.0,0.0,0.0,0.0,0.0,0.0,0.0,0.0,0.0,0.0,0.0,0.0,0.0,0.0,0.0,0.0,0.0,0.0,0.0,0.0,0.0,0.0,0.0,3.5295,4.1412,4.5586,4.5605,4.5605,4.5586,4.5586,4.5586,4.2701,0.0,0.0,0.0,0.0,0.0,0.0,0.0,0.0,0.0,0.0,0.0,0.0,0.0,0.0,0.0,0.0,0.0,0.0,0.0,0.0,0.0,0.0,0.0,0.0,0.0,0.0,0.0,0.0,0.0,0.0,0.0,0.0,0.0,0.0,0.0,0.0,0.0,0.0,0.0,0.0,0.0,0.0,0.0,0.0,0.0,0.0,0.0,0.0,0.0,0.0,0.0,0.0,0.0,0.0,0.0,0.0,0.0,0.0,0.0,0.0,0.0,0.0,0.0,0.0,0.0,0.0,0.0,0.0,0.0,0.0,0.0,0.0,0.0,0.0,0.0,0.0,0.0,0.0,0.0,0.0,0.0,0.0,0.0,0.0,0.0,0.0,0.0,0.0,0.0,0.0,0.0,0.0,0.0,0.0,0.0,0.0,0.0,0.0,0.0,0.0,0.0,0.0,0.0,3.6045,4.1758,4.5836,4.6451,4.597,4.5586,4.5586,4.5586,4.2701,3.593,0.0,0.0,0.0,0.0,0.0,0.0,0.0,0.0,0.0,0.0,0.0,0.0,0.0,0.0,0.0,0.0,0.0,0.0,0.0,0.0,0.0,0.0,0.0,0.0,0.0,0.0,0.0,0.0,0.0,0.0,0.0,0.0,0.0,0.0,0.0,0.0,0.0,0.0,0.0,0.0,0.0,0.0,0.0,0.0,0.0,0.0,0.0,0.0,0.0,0.0,0.0,0.0,0.0,0.0,0.0,0.0,0.0,0.0,0.0,0.0,0.0,0.0,0.0,0.0,0.0,0.0,0.0,0.0,0.0,0.0,0.0,0.0,0.0,0.0,0.0,0.0,0.0,0.0,0.0,0.0,0.0,0.0,0.0,0.0,0.0,0.0,0.0,0.0,0.0,0.0,0.0,0.0,0.0,0.0,0.0,0.0,0.0,0.0,0.0,0.0,0.0,0.0,3.643,4.2489,4.6797,4.7317,4.6913,4.6605,4.6605,4.6297,4.3797,3.8373,0.0,0.0,0.0,0.0,0.0,0.0,0.0,0.0,0.0,0.0,0.0,0.0,0.0,0.0,0.0,0.0,0.0,0.0,0.0,0.0,0.0,0.0,0.0,0.0,0.0,0.0,0.0,0.0,0.0,0.0,0.0,0.0,0.0,0.0,0.0,0.0,0.0,0.0,0.0,0.0,0.0,0.0,0.0,0.0,0.0,0.0,0.0,0.0,0.0,0.0,0.0,0.0,0.0,0.0,0.0,0.0,0.0,0.0,0.0,0.0,0.0,0.0,0.0,0.0,0.0,0.0,0.0,0.0,0.0,0.0,0.0,0.0,0.0,0.0,0.0,0.0,0.0,0.0,0.0,0.0,0.0,0.0,0.0,0.0,0.0,0.0,0.0,0.0,0.0,0.0,0.0,0.0,0.0,0.0,0.0,0.0,0.0,0.0,0.0,0.0,0.0,0.0,3.6719,4.347,4.8125,4.8221,4.8144,4.8105,4.8105,4.7432,4.5547,4.2143,0.0,0.0,0.0,0.0,0.0,0.0,0.0,0.0,0.0,0.0,0.0,0.0,0.0,0.0,0.0,0.0,0.0,0.0,0.0,0.0,0.0,0.0,0.0,0.0,0.0,0.0,0.0,0.0,0.0,0.0,0.0,0.0,0.0,0.0,0.0,0.0,0.0,0.0,0.0,0.0,0.0,0.0,0.0,0.0,0.0,0.0,0.0,0.0,0.0,0.0,0.0,0.0,0.0,0.0,0.0,0.0,0.0,0.0,0.0,0.0,2.9467,0.0,0.0,0.0,0.0,0.0,0.0,0.0,0.0,0.0,0.0,0.0,0.0,0.0,0.0,0.0,0.0,0.0,0.0,0.0,0.0,0.0,0.0,0.0,0.0,0.0,0.0,0.0,0.0,0.0,0.0,0.0,0.0,0.0,0.0,0.0,0.0,0.0,0.0,0.0,0.0,0.0,3.843,4.422,4.8355,4.9048,4.8509,4.8105,4.8105,4.7952,4.6413,4.3047,4.1162,0.0,0.0,0.0,0.0,0.0,0.0,0.0,0.0,0.0,0.0,0.0,0.0,0.0,0.0,0.0,0.0,0.0,0.0,0.0,0.0,0.0,0.0,0.0,0.0,0.0,0.0,0.0,0.0,0.0,0.0,0.0,0.0,0.0,0.0,0.0,0.0,0.0,0.0,0.0,0.0,0.0,0.0,0.0,0.0,0.0,0.0,0.0,0.0,0.0,0.0,0.0,0.0,0.0,0.0,0.0,0.0,0.0,0.0,0.0,0.0,3.1179,0.0,0.0,0.0,0.0,0.0,0.0,0.0,0.0,0.0,0.0,0.0,0.0,0.0,0.0,0.0,0.0,0.0,0.0,0.0,0.0,0.0,0.0,0.0,0.0,0.0,0.0,0.0,0.0,0.0,0.0,0.0,0.0,0.0,0.0,0.0,0.0,0.0,0.0,0.0,0.0,3.9008,4.5182,4.951,4.9971,4.9625,4.9356,4.9356,4.8971,4.7971,4.624,4.3797,0.0,0.0,0.0,0.0,0.0,0.0,0.0,0.0,0.0,0.0,0.0,0.0,0.0,0.0,0.0,0.0,0.0,0.0,0.0,0.0,0.0,0.0,0.0,0.0,0.0,0.0,0.0,0.0,0.0,0.0,0.0,0.0,0.0,0.0,0.0,0.0,0.0,0.0,0.0,0.0,0.0,0.0,0.0,0.0,0.0,0.0,0.0,0.0,0.0,0.0,0.0,0.0,0.0,3.6004,3.6635,3.6769,3.6837,3.8095,4.007,3.7233,3.726,3.8854,0.0,0.0,0.0,0.0,0.0,0.0,0.0,0.0,0.0,0.0,0.0,0.0,0.0,0.0,0.0,0.0,0.0,0.0,0.0,0.0,0.0,0.0,0.0,0.0,0.0,3.9373,4.0469,0.0,0.0,0.0,0.0,0.0,0.0,0.0,0.0,0.0,0.0,0.0,0.0,4.0335,4.6778,5.1125,5.1125,5.1125,5.1125,5.1125,5.0337,4.9837,4.9837,4.6432,4.3778,0.0,0.0,0.0,0.0,0.0,0.0,0.0,0.0,0.0,0.0,0.0,0.0,0.0,0.0,0.0,0.0,0.0,0.0,0.0,0.0,0.0,0.0,0.0,0.0,0.0,0.0,0.0,0.0,0.0,0.0,0.0,0.0,2.7751,2.8739,0.0,0.0,0.0,0.0,0.0,0.0,0.0,0.0,0.0,0.0,0.0,0.0,0.0,0.0,3.3979,3.6168,3.7277,3.7355,3.9672,4.1146,4.1855,4.2134,4.2867,4.3875,4.3421,0.0,3.9219,3.8315,0.0,0.0,0.0,0.0,0.0,0.0,0.0,0.0,0.0,0.0,0.0,0.0,0.0,0.0,0.0,0.0,0.0,0.0,0.0,0.0,0.0,0.0,4.3335,4.4085,4.4605,4.497,0.0,3.9335,3.4122,3.4449,0.0,0.0,0.0,0.0,0.0,0.0,0.0,0.0,4.5297,4.999,5.2876,5.2876,5.2876,5.2876,5.2876,5.2068,5.1568,5.1568,5.0394,4.7971,4.4124,4.2874,0.0,0.0,0.0,0.0,0.0,0.0,0.0,0.0,0.0,0.0,0.0,0.0,0.0,0.0,0.0,0.0,0.0,0.0,0.0,0.0,0.0,0.0,0.0,0.0,0.0,0.0,0.0,0.0,0.0,2.727,2.8727,3.0037,2.932,2.8601,0.0,0.0,0.0,0.0,0.0,0.0,0.0,0.0,0.0,3.6242,3.69,3.7804,3.9111,4.0561,4.1492,4.1925,4.3026,4.3848,4.4376,4.4524,4.4798,4.5161,4.5161,4.4269,4.2681,4.0551,3.8146,3.5624,0.0,0.0,0.0,0.0,0.0,3.3776,3.7257,0.0,0.0,0.0,0.0,0.0,0.0,0.0,0.0,0.0,0.0,0.0,0.0,0.0,0.0,4.6471,4.7009,4.7105,4.749,4.4643,4.1566,0.0,3.8661,3.6065,3.0737,0.0,0.0,0.0,0.0,4.4547,4.724,5.0875,5.3203,5.3203,5.3203,5.3203,5.3203,5.2856,5.2645,5.2645,5.2299,5.1048,4.8682,4.5951,4.2316,0.0,0.0,0.0,0.0,0.0,0.0,0.0,0.0,0.0,0.0,0.0,0.0,0.0,0.0,0.0,0.0,0.0,0.0,0.0,0.0,0.0,0.0,0.0,0.0,0.0,0.0,0.0,0.0,2.9003,3.0016,3.1476,3.1431,3.08,0.0,0.0,0.0,0.0,0.0,0.0,3.5562,3.5881,3.7013,3.918,3.9925,4.1152,4.2983,4.3565,4.4146,4.4688,4.4688,4.4811,4.5058,4.5058,4.5058,4.5058,4.5058,4.512,4.5012,4.2469,4.1055,4.0234,3.799,3.6719,3.6295,3.7546,3.7642,3.7661,4.147,4.2354,4.17,4.1104,0.0,3.9046,3.6084,0.0,0.0,0.0,0.0,3.9392,4.2585,4.3893,4.5009,4.7509,4.8105,4.8163,4.8375,4.8259,4.7432,0.0,4.3835,4.1219,3.5315,0.0,0.0,0.0,0.0,4.7817,4.9529,5.2145,5.3837,5.3837,5.3837,5.3837,5.3837,5.3645,5.353,5.353,5.3318,5.2914,5.226,4.9009,4.6124,4.3797,0.0,0.0,0.0,0.0,0.0,0.0,0.0,0.0,0.0,0.0,0.0,0.0,0.0,0.0,0.0,0.0,0.0,0.0,0.0,0.0,0.0,0.0,0.0,0.0,0.0,0.0,0.0,0.0,0.0,3.3566,3.4474,0.0,0.0,0.0,0.0,3.4236,3.5102,3.6558,3.8674,3.987,4.1315,4.3146,4.3558,4.3664,4.3458,4.3495,4.3548,4.3563,4.3563,4.3597,4.3597,4.3597,4.3597,4.3597,4.3597,4.3772,4.4138,4.4991,4.3895,4.1703,4.153,4.0008,3.8161,4.0642,4.1527,4.1873,4.4489,4.5374,4.5336,4.5297,4.3085,4.0546,4.1181,3.97,0.0,0.0,4.3258,4.4509,4.7105,4.7817,4.7894,4.8067,4.8105,4.8336,4.9163,4.8682,4.8298,0.0,4.9683,4.9048,4.5451,0.0,4.6451,4.624,4.7259,4.9529,5.3645,5.4991,5.5568,5.5568,5.5568,5.5568,5.5568,5.4876,5.4434,5.4434,5.3664,5.3183,5.3145,5.2145,4.9663,4.5547,4.3701,0.0,0.0,0.0,0.0,0.0,0.0,0.0,0.0,0.0,0.0,0.0,0.0,0.0,0.0,0.0,0.0,0.0,0.0,0.0,0.0,0.0,0.0,0.0,0.0,0.0,0.0,0.0,0.0,3.5491,3.6366,0.0,3.6016,3.7287,3.8141,3.8141,3.974,4.1071,4.183,4.2284,4.2839,4.3495,4.3631,4.3612,4.3497,4.4011,4.4521,4.498,4.5485,4.6017,4.6478,4.6478,4.6478,4.6478,4.6478,4.6525,4.666,4.705,4.5918,4.3963,4.4168,4.3682,4.3066,4.4547,4.5086,4.5297,4.6701,4.7201,4.7201,4.7201,4.6374,4.5451,4.5759,4.522,4.4759,4.597,4.6528,4.7086,4.8567,4.8933,4.9202,5.0298,5.0548,5.0779,5.1664,5.1606,5.1471,5.1798,5.1221,4.9779,4.6932,4.9413,5.0856,4.8086,5.0702,5.353,5.5068,5.5511,5.5703,5.5703,5.5703,5.5703,5.5703,5.5434,5.5261,5.5261,5.4972,5.4587,5.4068,5.3741,5.2606,5.0529,4.9356,4.4932,0.0,0.0,0.0,0.0,0.0,0.0,0.0,0.0,0.0,0.0,0.0,0.0,0.0,0.0,0.0,0.0,0.0,0.0,0.0,0.0,0.0,0.0,0.0,0.0,0.0,0.0,3.5945,3.6786,3.8321,3.898,3.8074,4.001,4.1305,4.1305,4.2677,4.3497,4.3497,4.3497,4.3608,4.3901,4.3901,4.403,4.4305,4.4837,4.5352,4.5851,4.6394,4.6883,4.7371,4.7371,4.7371,4.7371,4.7371,4.7491,4.7728,4.7728,4.7099,4.6125,4.6358,4.6432,4.6509,4.7086,4.7298,4.7394,4.7932,4.8105,4.8105,4.8105,4.8105,4.8144,4.8452,4.8548,4.8606,4.8894,4.9163,4.9529,5.0087,5.0452,5.0952,5.2068,5.2337,5.251,5.3087,5.3433,5.3645,5.3645,5.2741,5.1452,4.976,5.2491,5.3741,5.0337,5.3433,5.5934,5.5376,5.6049,5.6588,5.6588,5.6588,5.6588,5.6588,5.5511,5.5357,5.6492,5.5222,5.4703,5.5318,5.3683,5.251,5.1933,5.1068,4.7028,3.9719,0.0,0.0,0.0,0.0,0.0,0.0,0.0,0.0,0.0,0.0,0.0,0.0,0.0,0.0,0.0,0.0,0.0,0.0,0.0,0.0,0.0,0.0,0.0,3.5155,3.5862,3.6743,3.7562,4.0396,4.1699,4.0157,4.2121,4.3497,4.3497,4.3497,4.3497,4.3534,4.3534,4.3901,4.4727,4.4745,4.5112,4.5883,4.592,4.5938,4.5975,4.603,4.6048,4.603,4.6067,4.6085,4.6085,4.6085,4.6494,4.7145,4.7145,4.7571,4.8221,4.8125,4.8105,4.8105,4.8125,4.8163,4.8182,4.8182,4.8182,4.8202,4.8221,4.8221,4.8375,4.924,4.951,4.9683,5.0529,5.1337,5.1952,5.1952,5.2568,5.3222,5.3241,5.3241,5.326,5.328,5.3953,5.4568,5.4568,5.4607,5.4607,5.4587,5.5241,5.5222,5.3606,5.5453,0.0,5.4818,5.678,5.828,5.8184,5.8184,5.8184,5.8184,5.5145,5.4684,5.8088,5.4414,5.3587,5.6896,5.226,4.9606,4.9567,4.8606,4.649,4.3181,0.0,0.0,0.0,0.0,0.0,0.0,0.0,0.0,0.0,0.0,0.0,0.0,0.0,0.0,0.0,0.0,0.0,0.0,0.0,0.0,0.0,0.0,3.6872,3.6064,3.8175,4.0084,4.0873,4.1754,4.2359,4.2488,4.3094,4.3497,4.3497,4.3497,4.3754,4.4342,4.4378,4.4745,4.5535,4.5571,4.5681,4.5902,4.6489,4.6929,4.7222,4.8375,4.9086,4.9396,4.9996,5.0258,5.0258,5.0258,5.0353,5.0549,5.0549,5.0667,5.0681,4.8811,4.8105,4.8182,4.8817,4.9433,4.999,4.999,4.999,5.0087,5.0683,5.0875,5.1029,5.1895,5.2164,5.2202,5.2452,5.2664,5.2837,5.2837,5.3029,5.3356,5.3991,5.4145,5.4299,5.4895,5.5703,5.6299,5.6299,5.6819,5.7049,5.6415,5.7011,5.7434,5.6973,5.7492,0.0,5.7319,5.7877,5.7588,5.5742,5.5549,5.5549,5.5549,5.4684,5.5338,5.8127,5.7203,5.6953,5.7896,5.5992,5.4337,5.3126,4.9817,4.7048,0.0,0.0,0.0,0.0,0.0,0.0,0.0,0.0,0.0,0.0,0.0,0.0,0.0,0.0,0.0,0.0,0.0,0.0,0.0,0.0,0.0,0.0,3.7679,3.935,3.8872,4.0432,4.1901,4.2708,4.28,4.2983,4.3442,4.3497,4.3626,4.3975,4.3993,4.4342,4.5168,4.5204,4.5571,4.6379,4.6416,4.6562,4.6911,4.7737,4.8255,4.8527,4.9787,5.0526,5.0754,5.122,5.1425,0.0,5.1425,5.1645,5.1944,5.1944,5.2153,0.0,0.0,0.0,0.0,0.0,5.1318,5.1741,5.1741,5.1741,5.1818,5.2299,5.2452,5.2549,5.3049,5.3203,5.3203,5.3203,5.3453,5.3741,5.3741,5.3991,5.4376,5.4876,5.528,5.5684,5.6126,5.6934,5.753,5.753,0.0,0.0,5.8127,5.8184,5.805,5.7319,5.8127,5.855,5.7857,5.8684,5.8781,5.73,5.7146,5.7146,5.7146,5.5818,0.0,0.0,0.0,5.6549,5.6184,5.5684,0.0,0.0,0.0,0.0,0.0,0.0,0.0,0.0,4.1641,4.1083,0.0,0.0,0.0,0.0,0.0,0.0,0.0,0.0,0.0,0.0,0.0,0.0,0.0,0.0,0.0,0.0,4.0377,4.2433,4.2433,4.2433,4.269,4.3406,4.3497,4.3497,4.3497,4.3571,4.392,4.4654,4.4782,4.5204,4.5993,0.0,0.0,0.0,0.0,4.7737,4.8434,4.9297,4.9719,4.9738,5.0545,5.0949,5.0949,5.1041,5.1077,5.1077,5.1077,5.1473,5.2153,5.2165,5.2699,5.3349,5.2872,5.2673,5.2723,5.3059,5.3203,0.0,0.0,0.0,0.0,5.3318,5.3356,5.3356,5.3453,5.3491,5.3491,5.3491,5.4049,5.4664,5.4761,5.5299,5.5857,5.5972,5.6569,5.7146,5.7146,5.7838,5.8434,5.8434,5.9088,5.9646,5.9646,5.905,5.8069,5.6511,5.8204,5.9108,5.7607,5.9396,6.0685,6.0396,0.0,0.0,6.0358,5.7588,5.7261,6.0589,5.728,5.4818,5.3953,5.3914,5.351,5.2645,5.2626,5.3376,5.4934,5.4934,5.453,5.3587,4.5686,4.4115,0.0,0.0,0.0,0.0,0.0,0.0,0.0,0.0,0.0,0.0,0.0,0.0,0.0,0.0,0.0,3.9276,4.1589,4.3259,4.3259,4.3259,4.3314,4.3461,4.3497,4.3497,4.3497,4.4085,4.4544,4.4709,4.5296,4.603,4.6838,4.6874,0.0,4.8049,4.8746,4.9187,4.9334,5.016,5.0563,5.0582,0.0,0.0,5.1775,5.2435,5.2747,5.2747,5.2747,5.2835,5.2982,5.3312,5.3943,5.4626,5.3533,5.308,5.308,5.3182,5.3203,5.3203,5.3203,5.3203,5.3318,5.401,5.4241,5.4376,5.5011,5.5222,0.0,5.5222,5.5338,5.5626,5.6319,5.6626,5.6915,5.7627,5.7934,5.805,5.805,5.8684,5.9281,5.9281,5.9954,6.055,6.055,6.0416,6.0204,5.9858,6.0223,6.0435,6.0108,6.0492,6.0012,5.7934,5.7723,5.7723,5.7723,5.7126,5.7896,6.0627,6.0031,5.9184,5.8319,5.828,5.7896,5.7088,5.7069,5.7242,5.7569,5.7569,5.7492,5.7223,5.2797,5.1278,0.0,0.0,0.0,0.0,0.0,0.0,0.0,0.0,0.0,0.0,0.0,3.4945,3.6578,0.0,4.0304,4.1497,4.2708,4.3497,4.3497,4.3497,4.3497,4.3497,4.3497,4.3644,4.4066,4.447,4.5039,4.5847,4.6287,4.6856,4.7664,4.8122,4.8545,4.893,4.9756,5.0196,5.0196,5.1004,5.1389,5.1408,5.2215,5.2601,5.2619,5.3023,5.3206,5.3206,5.3206,5.3336,5.3545,5.396,5.4646,5.5369,5.497,5.4668,5.4453,5.4453,5.4453,5.4453,5.4453,5.4453,5.4511,5.4953,5.5395,5.5818,5.6222,5.6665,5.6992,5.6992,5.6992,5.7107,5.753,5.7646,5.7761,5.8204,5.8607,5.8896,5.8896,5.9569,6.0146,6.0146,6.0492,6.08,6.08,6.08,6.08,6.08,6.08,6.08,6.08,6.08,6.03,5.9031,5.8896,5.8896,5.8896,5.8896,5.9435,6.0723,6.08,6.0589,6.0165,6.0146,5.9762,5.8915,5.8896,5.8704,5.83,5.83,5.83,5.8261,5.6549,5.5799,0.0,0.0,0.0,0.0,0.0,0.0,0.0,3.2449,3.3128,3.5055,3.6523,3.79,3.9368,4.0689,4.1992,4.3277,4.3497,4.3497,4.3497,4.3497,4.3552,4.3699,4.3718,4.3993,4.4654,4.4984,4.5718,4.7021,4.726,4.77,4.8508,4.9205,4.9646,4.9811,5.06,5.1041,5.1041,5.183,5.2234,5.2234,5.2894,5.3206,5.3225,5.3371,5.3445,5.3445,5.361,5.3883,5.428,5.4656,5.5273,5.5956,5.6348,5.632,5.6076,5.6162,5.6203,5.6203,5.6203,5.6203,5.6203,5.6203,5.6684,5.7242,5.7242,5.7742,5.83,5.83,5.83,5.8338,5.8492,5.8531,5.8588,5.8742,5.9281,5.9742,5.9742,6.03,6.08,6.08,6.08,6.08,6.08,6.08,6.08,6.08,6.08,6.08,6.08,6.08,6.08,6.08,6.08,6.08,6.08,6.08,6.08,6.08,6.08,6.08,6.08,6.08,6.0473,5.9762,5.9742,5.9435,5.88,5.88,5.88,5.88,5.88,5.8607,3.0338,2.9347,2.9305,3.065,3.1604,3.3568,0.0,3.8285,3.7661,4.0726,4.1497,4.1901,4.28,4.3094,4.3277,4.3461,4.3497,4.3497,4.3497,4.3497,4.3754,4.4488,4.458,4.4617,4.4709,4.6012,4.6929,4.7113,4.7774,4.8545,4.9389,4.9536,4.9921,5.0637,5.1444,5.1867,5.1867,5.2656,5.3078,5.3078,5.317,5.3206,5.3225,5.394,5.4271,5.4308,5.5023,5.5544,5.5936,5.5975,5.6312,5.6756,5.6823,5.7074,5.7439,5.7858,5.8011,5.8011,5.8011,5.8011,5.8011,5.8011,5.8088,5.8146,5.8146,5.8223,5.83,5.83,5.83,5.8473,5.9184,5.9377,5.9569,6.0339,6.0589,6.0646,6.0646,6.0723,6.08,6.08,6.08,6.08,6.08,6.08,6.08,6.08,6.08,6.08,6.08,6.08,6.08,6.08,6.08,6.08,6.08,6.08,6.08,6.08,6.08,6.08,6.08,6.08,6.0742,6.0666,6.0646,6.0608,6.0512,6.0512,6.0512,6.0512,6.0512,5.9723,3.5037,3.4229,3.3642,3.5257,3.6248,3.7477,3.9863,3.9974,4.0249,4.2525,4.3002,4.3094,4.3424,4.3497,4.3497,4.3497,4.3497,4.3497,4.3497,4.3901,4.4323,4.4672,4.5535,4.6122,4.6122,4.6728,4.7517,4.8471,4.8857,4.9407,5.0251,5.0729,5.1132,5.1481,5.2289,5.2711,5.2711,5.35,5.3904,5.3904,5.4363,5.4601,5.4601,5.495,5.5097,5.5115,5.5445,5.5687,5.5845,5.5845,5.6413,5.7267,5.7535,5.8237,5.8959,5.8188,5.8078,5.83,5.83,5.83,5.83,5.83,5.8627,5.9011,5.9011,5.9358,5.9742,5.9742,5.9742,5.9838,6.0165,6.0262,6.0339,6.0704,6.08,6.08,6.08,6.08,6.08,6.08,6.08,6.08,6.08,6.08,6.08,6.08,6.08,6.08,6.08,6.08,6.08,6.08,6.08,6.08,6.08,6.08,6.08,6.08,6.08,6.08,6.08,6.08,6.08,6.08,6.08,6.08,6.08,6.08,6.08,6.08,6.08,6.0416,3.7055,3.7165,3.7239,3.8414,3.9808,4.0891,4.0891,4.135,4.2084,4.3259,4.3497,4.3497,4.3497,4.3497,4.3497,4.3497,4.3681,4.3828,4.3828,4.4525,4.5112,4.5351,4.6397,4.7297,4.7755,4.7792,4.8288,4.9499,4.9793,5.027,5.1096,5.1665,5.2087,5.2307,5.2913,5.3316,5.3537,5.4106,5.4509,5.473,5.5317,5.5592,5.5592,5.5831,5.6051,5.6253,5.6253,5.6253,5.6253,5.6253,5.6879,5.7859,5.8202,5.9048,5.9951,5.8749,5.8585,5.8992,5.8992,5.8992,5.8992,5.8992,5.9377,5.9858,5.9858,6.03,6.08,6.08,6.08,6.08,6.08,6.08,6.08,6.08,6.08,6.08,6.08,6.08,6.08,6.08,6.08,6.08,6.08,6.08,6.08,6.08,6.08,6.08,6.08,6.08,6.08,6.08,6.08,6.08,6.08,6.08,6.08,6.08,6.08,6.08,6.08,6.08,6.08,6.08,6.08,6.08,6.08,6.08,6.08,6.08,6.08,6.08,3.4578,3.6248,3.8652,3.8689,4.1056,4.3387,4.3387,4.3406,4.3424,4.3479,4.3497,4.3497,4.3497,4.3497,4.3497,4.3497,4.4158,4.4672,4.4672,4.5369,4.6159,4.6948,4.7095,4.7755,0.0,4.9499,4.9536,4.9591,5.0306,5.1114,5.1903,5.1977,5.2362,5.3151,5.3206,5.3573,5.4363,5.4399,5.4785,5.5556,5.5574,5.5592,5.5611,5.6418,5.7189,5.7923,5.7923,5.7923,5.7923,5.7923,5.8227,5.8657,5.8697,5.9265,6.0084,6.0027,6.0334,6.0723,6.0723,6.0723,6.0723,6.0723,6.0742,6.0762,6.0762,6.0781,6.08,6.08,6.08,6.08,6.08,6.08,6.08,6.08,6.08,6.08,6.08,6.08,6.08,6.08,6.08,6.08,6.08,6.08,6.08,6.08,6.08,6.08,6.08,6.08,6.08,6.08,6.08,6.08,6.08,6.08,6.08,6.08,6.08,6.08,6.08,6.08,6.08,6.08,6.08,6.08,6.08,6.08,6.08,6.08,6.08,6.08,3.6835,3.8248,3.9882,4.1479,4.269,4.3497,4.3497,4.3497,4.3497,4.3497,4.3497,4.3497,4.3497,4.3497,4.3663,4.4213,4.4525,4.4892,4.5424,4.6195,4.6819,4.7095,4.759,4.8343,0.0,0.0,0.0,5.1096,5.1426,5.194,5.2747,5.2803,5.317,5.3977,5.4014,5.4381,5.5188,5.5739,5.6124,5.64,5.6932,5.7189,5.7189,5.7464,5.774,5.7997,5.7997,5.7997,5.7997,5.7997,5.8282,5.8694,5.8694,5.9248,6.0103,6.0103,6.0411,6.08,6.08,6.08,6.08,6.08,6.08,6.08,6.08,6.08,6.08,6.08,6.08,6.08,6.08,6.08,6.08,6.08,6.08,6.08,6.08,6.08,6.08,6.08,6.08,6.08,6.08,6.08,6.08,6.08,6.08,6.08,6.08,6.08,6.08,6.08,6.08,6.08,6.08,6.08,6.08,6.08,6.08,6.08,6.08,6.08,6.08,6.08,6.08,6.08,6.08,6.08,6.08,6.08,6.08,6.08,3.8891,3.9937,4.0836,4.2965,4.3497,4.3497,4.3497,4.3497,4.3497,4.3497,4.3259,4.3149,4.3442,4.3497,4.3754,4.458,4.5186,4.5755,4.6269,4.704,4.7535,4.7535,4.8269,4.9095,4.9939,0.0,0.0,5.1903,5.227,5.2656,5.3188,5.3482,5.3867,5.4381,5.4675,5.5207,5.6014,5.6547,5.695,5.7244,5.7758,5.7997,5.7997,5.7997,5.7997,5.7997,5.7997,5.7997,5.7997,5.7997,5.8282,5.8694,5.8694,5.9195,5.9885,6.0025,6.0291,6.0578,6.0734,6.08,6.08,6.08,6.08,6.08,6.08,6.08,6.08,6.08,6.08,6.08,6.08,6.08,6.08,6.08,6.08,6.08,6.08,6.08,6.08,6.08,6.08,6.08,6.08,6.105,6.1262,6.1262,6.1512,6.1473,6.0877,6.1069,6.1262,6.1262,6.1512,6.157,6.1281,6.1262,6.1127,6.0819,6.08,6.08,6.08,6.08,6.08,6.08,6.08,6.08,6.08,6.08,6.08,6.08,6.08,6.08,4.0469,4.1167,4.1589,4.3112,4.3497,4.3497,4.3497,4.3497,4.3461,4.3387,4.2763,4.2451,4.3112,4.3351,4.3699,4.4525,4.603,4.7131,4.7186,4.7829,4.8324,4.8361,4.9095,4.9921,5.0784,5.1555,0.0,5.205,0.0,5.3206,5.3206,5.3959,5.4418,5.4454,5.5225,5.6051,5.6859,5.6877,5.7244,5.7997,5.7997,5.7997,5.7997,5.7997,5.7997,5.7997,5.7997,5.7997,5.7997,5.7997,5.8282,5.8654,5.8654,5.899,5.9458,5.9885,6.0084,6.0208,6.0647,6.08,6.08,6.08,6.08,6.08,6.08,6.08,6.08,6.08,6.08,6.08,6.08,6.08,6.08,6.08,6.08,6.08,6.08,6.08,6.08,6.08,6.08,6.08,6.0858,6.155,6.2108,6.2147,6.282,6.2743,6.1127,6.1647,6.2147,6.2147,6.2839,6.2993,6.2224,6.2147,6.1781,6.0916,6.0858,6.0839,6.08,6.08,6.08,6.08,6.08,6.08,6.08,6.08,6.08,6.08,6.08,6.08,4.0781,4.1992,4.2983,4.3387,4.3497,4.3497,4.3497,4.3497,4.3149,4.1974,4.1552,4.1111,4.0102,4.1387,4.2873,4.3681,4.5663,4.7333,4.7921,4.8177,4.8545,4.9187,4.9444,5.0141,5.1555,5.1867,0.0,0.0,5.3096,5.3206,5.3206,5.3959,5.4675,5.5262,5.6069,5.6877,5.7685,5.7685,5.7795,5.7997,5.7997,5.7997,5.7997,5.7997,5.7997,5.7997,5.7997,5.7997,5.7997,5.7997,5.807,5.8168,5.8168,5.8654,5.9389,5.9526,6.0025,6.0647,6.0757,6.08,6.08,6.08,6.08,6.08,6.08,6.08,6.08,6.08,6.08,6.08,6.08,6.08,6.08,6.08,6.08,6.08,6.08,6.08,6.08,6.08,6.08,6.1012,6.1647,6.1935,6.23,6.2897,6.3166,6.3147,6.2724,6.2858,6.2993,6.2993,6.3185,6.3224,6.3012,6.2993,6.2647,6.182,6.1762,6.1473,6.0819,6.08,6.08,6.08,6.08,6.08,6.08,6.08,6.08,6.08,6.08,6.08,4.1846,4.28,4.3497,4.3497,4.3497,4.3314,4.2598,4.2451,4.1882,3.9918,3.9515,3.9148,3.7881,4.0194,4.2451,4.2892,4.559,4.7792,4.8251,4.8636,4.904,4.9481,5.0196,5.1004,5.1903,5.2307,5.2711,0.0,5.3206,5.3353,5.372,5.4491,5.5299,5.6106,5.6914,5.7538,5.7997,5.7997,5.7997,5.7997,5.7997,5.7997,5.7997,5.7997,5.7997,5.7997,0.0,5.7997,5.7997,5.7997,5.7997,5.8042,5.8257,5.8632,5.9158,5.9578,6.0025,6.0508,6.0734,6.08,6.08,6.08,6.08,6.08,6.08,6.08,6.08,6.08,6.08,6.08,6.08,6.08,6.08,6.08,6.08,6.08,6.08,6.08,6.08,6.08,6.08,6.1069,6.1935,6.2377,6.2916,6.3762,6.4205,6.4436,6.4436,6.4109,6.3878,6.3878,6.4205,6.4301,6.3897,6.3878,6.3512,6.2685,6.2627,6.2243,6.1396,6.1358,6.1185,6.08,6.08,6.08,6.08,6.08,6.08,6.08,6.08,6.08,4.3112,4.3497,4.3497,4.3497,4.3497,4.3075,4.1479,4.1038,4.023,3.7679,3.7074,3.6743,3.5954,3.9019,4.1772,4.2084,4.5443,4.8104,4.8434,4.9114,4.9646,4.9811,5.1114,5.2032,5.2142,5.2803,5.3243,5.3353,5.3371,5.3665,5.4363,5.5262,5.6124,5.6932,5.7648,5.7997,5.7997,5.7997,5.7997,5.7997,5.7997,5.7997,5.7997,5.7997,5.7997,5.7997,0.0,0.0,5.7997,5.7997,5.7997,5.8024,5.8526,5.8735,5.8913,5.9773,6.0132,6.0236,6.0647,6.08,6.08,6.08,6.08,6.08,6.08,6.08,6.08,6.08,6.08,6.08,6.08,6.08,6.08,6.08,6.08,6.08,6.08,6.08,6.08,6.08,6.0877,6.1243,6.2108,6.2935,6.3782,6.4647,6.5416,6.5897,6.5897,6.5243,6.4762,6.4762,6.5455,6.559,6.4839,6.4762,6.4397,6.3531,6.3474,6.3108,6.2281,6.2262,6.1839,6.0993,6.0973,6.0916,6.08,6.08,6.08,6.08,6.08,6.08,4.3406,4.3497,4.3497,4.3497,4.3497,4.3075,4.1479,4.0598,3.9221,3.6101,3.4908,3.4192,3.3403,3.6028,3.8982,4.0983,4.414,4.7021,4.9077,4.9481,5.0068,5.1408,5.1811,5.2252,5.2931,5.3133,5.3482,0.0,5.4197,5.4252,5.4399,5.5794,5.6969,5.7776,5.7923,5.7997,5.7997,5.7997,5.7997,5.7997,5.7997,5.7997,5.7997,5.7997,5.7997,5.7997,5.7997,0.0,5.7997,5.7997,5.7997,5.8024,5.8526,5.8951,5.9373,5.9885,6.0338,6.069,6.0757,6.08,6.08,6.08,6.08,6.08,6.08,6.08,6.08,6.08,6.08,6.08,6.08,6.08,6.08,6.08,6.08,6.08,6.08,6.08,6.08,6.08,6.1377,6.2127,6.2954,6.382,6.4666,6.5532,6.5801,6.5897,6.5897,6.5763,6.5667,6.5667,6.5801,6.584,6.5686,6.5667,6.5301,6.4436,6.4378,6.3993,6.3128,6.3089,6.2704,6.1877,6.1858,6.1512,6.08,6.08,6.08,6.08,6.08,6.08,4.3497,4.3497,4.3497,4.3497,4.3497,4.2745,3.9882,3.8927,3.7477,3.3348,3.254,3.2302,3.1513,3.4376,3.7533,3.9533,4.291,4.614,4.8581,4.9664,5.0655,5.1848,5.2362,5.2784,5.317,5.3592,5.3977,5.4363,5.5188,5.5647,5.5647,5.6785,5.7593,5.7997,5.7997,5.7997,5.7997,5.7997,5.7997,5.7997,5.7997,5.7997,5.7997,5.7997,5.7997,5.7997,5.7997,0.0,5.7997,5.7997,5.7997,5.8024,5.8526,5.8971,5.9477,5.9916,6.0411,6.08,6.08,6.08,6.08,6.08,6.08,6.08,6.08,6.08,6.08,6.08,6.08,6.08,6.08,6.08,6.08,6.08,6.08,6.08,6.08,6.08,6.08,6.08,6.1493,6.2358,6.3166,6.4032,6.4897,6.5763,6.5897,6.5897,6.5897,6.5897,6.5897,6.5897,6.5897,6.5897,6.5897,6.5897,6.5724,6.5301,6.5282,6.4897,6.4012,6.3974,6.3589,6.2743,6.2724,6.2512,6.2108,6.1685,6.1473,6.1454,6.1012,6.08,4.3497,4.3497,4.3497,4.3497,4.3497,4.2433,3.8414,3.7349,3.5899,3.1164,3.0577,3.0797,3.0503,3.322,3.6266,3.8579,4.1754,4.5021,4.8141,4.9701,5.0967,5.2123,5.2821,5.3206,5.3206,5.394,5.4473,5.4638,0.0,0.0,5.706,5.7666,5.7997,5.7997,5.7997,5.7997,5.7997,5.7997,5.7997,5.7997,5.7997,5.7997,5.7997,5.7997,5.7997,5.7997,5.7997,0.0,0.0,5.7997,5.7997,5.8024,5.8526,5.8951,5.9319,5.9885,6.0338,6.0647,6.0757,6.08,6.08,6.08,6.08,6.08,6.08,6.08,6.08,6.08,6.08,6.08,6.08,6.08,6.08,6.08,6.08,6.08,6.08,6.08,6.08,6.08,6.1627,6.2551,6.3185,6.4185,6.5109,6.5801,6.5897,6.5897,6.5897,6.5897,6.5897,6.5897,6.5897,6.5897,6.5897,6.5897,6.5897,6.5897,6.5897,6.559,6.4916,6.4878,6.4474,6.3608,6.3589,6.3493,6.3301,6.2666,6.2262,6.2089,6.157,6.1146,4.3497,4.3497,4.3497,4.3497,4.3497,4.2433,3.8414,3.6927,3.522,3.1054,2.9696,2.9641,3.1017,3.2192,3.4449,3.9038,4.0708,4.3332,4.871,4.9591,5.0545,5.2821,5.317,5.3206,5.3206,5.394,5.4693,5.5427,0.0,0.0,5.7886,5.796,5.7997,5.7997,5.7997,5.7997,5.7997,5.7997,5.7997,5.7997,5.7997,5.7997,5.7997,5.7997,5.7997,5.7997,5.7997,0.0,0.0,5.7997,5.7997,5.8024,5.8526,5.8735,5.8874,5.9773,6.0132,6.0236,6.0647,6.08,6.08,6.08,6.08,6.08,6.08,6.08,6.08,6.08,6.08,6.08,6.08,6.08,6.08,6.08,6.08,6.08,6.08,6.08,6.08,6.08,6.2089,6.3224,6.3301,6.4686,6.5801,6.5878,6.5897,6.5897,6.5897,6.5897,6.5897,6.5897,6.5897,6.5897,6.5897,6.5897,6.5897,6.5897,6.5897,6.5859,6.5782,6.5782,6.5378,6.4493,6.4474,6.4089,6.3301,6.3243,6.282,6.2108,6.2762,6.2243,4.3369,4.3497,4.3497,4.3497,4.313,4.1717,3.7679,3.6119,3.4376,3.032,2.9237,2.9494,3.1091,3.1274,3.2761,3.7643,3.8707,4.0561,4.5259,4.6746,4.8269,5.0729,5.1463,5.2325,5.3794,5.4638,5.5647,5.695,0.0,0.0,5.7997,5.7997,5.7997,5.7997,5.7997,5.7997,5.7997,5.7997,5.7997,5.7997,5.7997,5.7997,5.7997,5.7997,5.7997,5.7997,5.7997,0.0,0.0,5.7997,5.7997,5.8042,5.8213,5.8632,5.9158,5.9545,6.0025,6.0553,6.0734,6.08,6.08,6.08,6.08,6.08,6.08,6.08,6.08,6.08,6.08,6.08,6.08,6.08,6.08,6.08,6.08,6.08,6.08,6.08,6.0954,6.1473,6.2512,6.3474,6.3993,6.5089,6.5897,6.5897,6.5897,6.5897,6.5897,6.5897,6.5897,6.5897,6.5897,6.5897,6.5897,6.5897,6.5897,6.5897,6.5897,6.5897,6.5897,6.5897,6.5743,6.5397,6.5378,6.5205,6.4859,6.4339,6.3916,6.3589,6.3397,6.2954,4.3222,4.3497,4.3497,4.3497,4.2892,4.124,3.7221,3.5642,3.3853,2.9819,2.8994,2.9439,3.0797,3.0779,3.199,3.6413,3.7331,3.8982,4.3259,4.4819,4.6452,4.8912,4.9939,5.1298,5.3482,5.506,5.651,0.0,0.0,0.0,0.0,5.7997,5.7997,5.7997,5.7997,5.7997,5.7997,5.7997,5.7997,5.7997,5.7997,5.7997,5.7997,5.7997,5.7997,5.7997,0.0,0.0,0.0,5.7997,5.7997,5.7997,5.7997,5.8418,5.9009,5.9284,5.9823,6.0411,6.069,6.08,6.08,6.08,6.08,6.08,6.08,6.08,6.08,6.08,6.08,6.08,6.08,6.08,6.08,6.08,6.08,6.08,6.08,6.08,6.105,6.1916,6.2743,6.3589,6.4455,6.532,6.5897,6.5897,6.5897,6.5897,6.5897,6.5897,6.5897,6.5897,6.5897,6.5897,6.5897,6.5897,6.5897,6.5897,6.5897,6.5897,6.5897,6.5897,6.5897,6.5897,6.5897,6.5897,6.5897,6.5282,6.4859,6.4589,6.4224,6.3935,4.3057,4.3497,4.3497,4.3497,4.2892,4.124,3.7221,3.5642,3.3853,2.9819,2.8994,2.9255,3.0063,3.0852,3.2467,3.5771,3.6964,3.9166,4.4011,4.4709,4.5626,4.8031,4.9077,5.0233,5.1867,5.4913,5.7134,0.0,0.0,0.0,0.0,5.7997,5.7997,5.7997,5.7997,5.7997,5.7997,5.7997,5.7997,5.7997,5.7997,5.7997,5.7997,5.7997,5.7997,0.0,0.0,0.0,0.0,5.7997,5.7997,5.7997,5.7997,5.7997,5.8142,5.9047,5.9408,5.9545,6.0482,6.08,6.08,6.08,6.08,6.08,6.08,6.08,6.08,6.08,6.08,6.08,6.08,6.08,6.08,6.08,6.08,6.08,6.08,6.08,6.105,6.1916,6.2743,6.3589,6.4455,6.532,6.5897,6.5897,6.5897,6.5897,6.5897,6.5897,6.5897,6.5897,6.5897,6.5897,6.5897,6.5897,6.5897,6.5897,6.5897,6.5897,6.5897,6.5897,6.5897,6.5897,6.5897,6.5897,6.5897,6.5878,6.5436,6.4628,6.5474,6.5416,4.0744,4.1442,4.1607,4.0487,3.9606,3.823,3.5275,3.3954,3.254,2.9599,2.8994,2.9255,3.0063,2.9971,3.1384,3.6303,3.6853,3.8175,4.247,4.4488,4.6012,4.7333,5.1151,5.4106,5.5188,0.0,0.0,0.0,0.0,0.0,0.0,5.7997,5.7997,5.7997,5.7997,5.7997,5.7997,5.7997,5.7997,5.7997,5.7997,5.7997,5.7997,5.7997,0.0,0.0,0.0,0.0,0.0,5.7997,5.7997,5.7997,5.7997,5.8213,5.8549,5.9195,5.9611,5.9965,6.0597,6.08,6.08,6.08,6.08,6.08,6.08,6.08,6.08,6.08,6.08,6.08,6.08,6.08,6.08,6.08,6.08,6.08,6.08,6.08,6.1223,6.2647,6.3128,6.3782,6.5243,6.5724,6.5897,6.5897,6.5897,6.5897,6.5897,6.5897,6.5897,6.5897,6.5897,6.5897,6.5897,6.5897,6.5897,6.5897,6.5897,6.5897,6.5897,6.5897,6.5897,6.5897,6.5897,6.5897,6.5897,6.5897,6.5763,6.5493,6.5763,6.5743,3.8432,3.9588,3.9955,3.8946,3.7863,3.6468,3.4302,3.2944,3.1549,2.9457,2.8994,2.914,2.9659,2.9604,3.0815,3.4981,3.6009,3.7698,4.1735,4.4121,4.6214,4.8269,5.2435,5.5464,0.0,5.7354,0.0,0.0,0.0,0.0,0.0,5.7997,5.7997,5.7997,5.7997,5.7997,5.7997,5.7997,5.7997,5.7997,5.7997,5.7997,5.7997,5.7997,0.0,0.0,0.0,0.0,0.0,5.7997,5.7997,5.7997,5.7997,5.8168,5.8526,5.9158,5.9559,5.9916,6.0578,6.08,6.08,6.08,6.08,6.08,6.08,6.08,6.08,6.08,6.08,6.08,6.08,6.08,6.08,6.08,6.08,6.08,6.08,6.08,6.1204,6.2589,6.3089,6.3762,6.5166,6.5686,6.5897,6.5897,6.5897,6.5897,6.5897,6.5897,6.5897,6.5897,6.5897,6.5897,6.5897,6.5897,6.5897,6.5897,6.5897,6.5897,6.5897,6.5897,6.5897,6.5897,6.5897,6.5897,6.5897,6.5897,6.5897,6.5897,6.5897,6.5724,0.0,3.7551,3.8322,3.8212,3.7055,3.5532,3.3917,3.2375,0.0,2.9305,2.8994,2.9049,2.9214,2.9769,3.0852,3.2816,3.5,3.79,4.1974,4.4103,4.6691,5.0674,5.317,5.4895,5.5684,0.0,0.0,0.0,0.0,0.0,0.0,5.7997,5.7997,5.7997,5.7997,5.7997,5.7997,5.7997,5.7997,5.7997,5.7997,5.7997,5.7997,5.7997,0.0,0.0,0.0,0.0,0.0,5.7997,5.7997,5.7997,5.7997,5.7997,5.8097,5.9009,5.9354,5.9545,6.0437,6.0757,6.08,6.08,6.08,6.08,6.08,6.08,6.08,6.08,6.08,6.08,6.08,6.08,6.08,6.08,6.08,6.08,6.08,6.08,6.105,6.1916,6.2743,6.3589,6.4455,6.532,6.5897,6.5897,6.5897,6.5897,6.5897,6.5897,6.5897,6.5897,6.5897,6.5897,6.5897,6.5897,6.5897,6.5897,6.5897,6.5897,6.5897,6.5897,6.5897,6.5897,6.5897,6.5897,6.5897,6.5897,6.5897,6.5897,6.584,6.5378,2.9806,0.0,3.4651,3.3421,3.2816,3.2284,0.0,3.076,3.021,2.9195,2.8994,2.9544,3.1421,3.0907,3.1953,3.7312,3.8157,3.9772,4.4397,4.8067,5.1316,5.4124,5.5519,5.6547,5.7354,0.0,0.0,0.0,0.0,5.7997,0.0,5.7997,5.7997,5.7997,5.7997,5.7997,5.7997,5.7997,5.7997,5.7997,5.7997,5.7997,5.7997,5.7997,0.0,0.0,0.0,0.0,5.7997,5.7997,5.7997,5.7997,5.7997,5.7997,5.807,5.8673,5.9084,5.9492,6.0055,6.0508,6.08,6.08,6.08,6.08,6.08,6.08,6.08,6.08,6.08,6.08,6.08,6.08,6.08,6.08,6.08,6.08,6.08,6.08,6.105,6.1916,6.2743,6.3589,6.4455,6.532,6.5897,6.5897,6.5897,6.5897,6.5897,6.5897,6.5897,6.5897,6.5897,6.5897,6.5897,6.5897,6.5897,6.5897,6.5897,6.5897,6.5897,6.5897,6.5897,6.5897,6.5897,6.5897,6.5897,6.5897,6.5897,6.5878,6.5224,6.4801,2.7145,3.0191,3.3036,3.2173,3.1953,3.1843,3.1403,3.0448,2.9549,2.9085,2.8994,2.9507,3.1201,3.199,3.3568,3.7092,3.979,4.302,4.7517,5.1004,5.372,5.539,5.6638,5.7519,0.0,0.0,0.0,0.0,0.0,5.7997,0.0,5.7997,5.7997,5.7997,5.7997,5.7997,5.7997,5.7997,5.7997,5.7997,5.7997,5.7997,5.7997,5.7997,5.7997,0.0,0.0,0.0,5.7997,5.7997,5.7997,5.7997,5.7997,5.7997,5.807,5.8526,5.9009,5.9477,5.9946,6.0411,6.08,6.08,6.08,6.08,6.08,6.08,6.08,6.08,6.08,6.08,6.08,6.08,6.08,6.08,6.08,6.08,6.08,6.08,6.0935,6.1396,6.2474,6.3455,6.3916,6.5051,6.5897,6.5897,6.5897,6.5897,6.5897,6.5897,6.5897,6.5897,6.5897,6.5897,6.5897,6.5897,6.5897,6.5897,6.5897,6.5897,6.5897,6.5897,6.5897,6.5897,6.5897,6.5897,6.5897,6.5897,6.5686,6.5282,6.482,6.4224,2.6649,2.9732,3.2485,3.199,3.2155,3.2357,3.2118,3.0461,2.9012,2.914,2.9177,2.9696,3.1366,3.3513,3.5357,3.6476,4.1497,4.6599,5.0435,5.3059,5.4876,5.5684,5.7097,0.0,0.0,0.0,0.0,0.0,0.0,0.0,0.0,5.7997,5.7997,5.7997,5.7997,5.7997,5.7997,5.7997,5.7997,5.7997,5.7997,5.7997,5.7997,5.7997,5.7997,0.0,0.0,0.0,5.7997,5.7997,5.7997,5.7997,5.7997,5.7997,5.8024,5.8461,5.8951,5.9477,6.0025,6.0482,6.08,6.08,6.08,6.08,6.08,6.08,6.08,6.08,6.08,6.08,6.08,6.08,6.08,6.08,6.08,6.08,6.08,6.08,6.08,6.08,6.2147,6.3301,6.3301,6.4743,6.5897,6.5897,6.5897,6.5897,6.5897,6.5897,6.5897,6.5897,6.5897,6.5897,6.5897,6.5897,6.5897,6.5897,6.5897,6.5897,6.5897,6.5897,6.5897,6.5897,6.5897,6.5897,6.5897,6.5763,6.532,6.4589,6.4339,6.3531,2.786,3.0552,3.1953,2.9219,3.0063,3.1219,2.9879,2.9269,2.92,2.9879,3.0026,3.1751,3.7367,3.6541,3.7037,4.3222,4.6214,4.871,5.1426,5.3885,5.5702,5.6528,0.0,0.0,0.0,0.0,0.0,0.0,0.0,0.0,0.0,5.7997,5.7997,5.7997,5.7997,5.7997,5.7997,5.7997,5.7997,5.7997,5.7997,5.7997,5.7997,5.7997,5.7997,0.0,0.0,5.7997,5.7997,5.7997,5.7997,5.7997,5.7997,5.7997,5.7997,5.807,5.8673,5.9526,6.0384,6.0734,6.08,6.08,6.08,6.08,6.08,6.08,6.08,6.08,6.08,6.08,6.08,6.08,6.08,6.08,6.08,6.08,6.08,6.08,6.08,6.08,6.2147,6.3301,6.3301,6.4743,6.5897,6.5897,6.5897,6.5897,6.5897,6.5897,6.5897,6.5897,6.5897,6.5897,6.5897,6.5897,6.5897,6.5897,6.5897,6.5897,6.5897,6.5897,6.5897,6.5897,6.5897,6.5897,6.5897,6.5166,6.4724,6.457,6.3128,6.2416,2.6007,2.8503,3.0411,2.9365,3.2559,3.5789,3.5055,3.4559,3.41,3.3605,3.3844,3.5183,3.8615,3.979,4.2359,4.8802,4.937,4.9994,5.2894,5.4252,5.5409,0.0,0.0,0.0,0.0,0.0,0.0,0.0,0.0,0.0,0.0,0.0,5.7997,5.7997,5.7997,5.7997,5.7997,5.7997,5.7997,5.7997,5.7997,5.7997,5.7997,5.7997,5.7997,5.7997,0.0,5.7997,5.7997,5.7997,5.7997,5.7997,5.7997,5.7997,5.807,5.8549,5.9009,5.9526,6.0482,6.08,6.08,6.08,6.08,6.08,6.08,6.08,6.08,6.08,6.08,6.08,6.08,6.08,6.08,6.08,6.08,6.08,6.08,6.08,6.08,6.08,6.18,6.2647,6.2647,6.407,6.5205,6.5205,6.559,6.5897,6.5897,6.5897,6.5897,6.5897,6.5897,6.5897,6.5897,6.5897,6.5897,6.5897,6.5897,6.5897,6.5897,6.5897,6.5897,6.5897,6.5897,6.5667,6.5205,6.4801,6.4128,6.3224,6.2454,6.1973,2.5401,2.7402,2.9622,3.098,3.4798,3.8377,3.9148,3.856,3.7698,3.7239,3.7624,3.8469,3.9863,4.3259,4.7223,5.1389,5.1151,5.1426,5.4271,5.484,5.55,0.0,0.0,0.0,0.0,0.0,0.0,0.0,0.0,0.0,0.0,0.0,5.7997,5.7997,5.7997,5.7997,5.7997,5.7997,5.7997,5.7997,5.7997,5.7997,5.7997,5.7997,5.7997,5.7997,5.7997,5.7997,5.7997,5.7997,5.7997,5.7997,5.7997,5.7997,5.8097,5.9047,5.9389,5.9526,6.0482,6.08,6.08,6.08,6.08,6.08,6.08,6.08,6.08,6.08,6.08,6.08,6.08,6.08,6.08,6.08,6.08,6.08,6.08,6.08,6.08,6.08,6.1493,6.2089,6.2089,6.3493,6.4609,6.4609,6.534,6.5897,6.5897,6.5897,6.5897,6.5897,6.5897,6.5897,6.5897,6.5897,6.5897,6.5897,6.5897,6.5897,6.5897,6.5897,6.5801,6.559,6.5801,6.5378,6.4301,6.4301,6.3531,6.2089,6.1916,6.167,2.8962,2.9953,3.0852,3.3872,3.3872,3.3917,3.6964,3.6413,3.6119,3.9038,3.968,4.0653,4.3718,4.7003,4.9114,4.8728,5.1077,5.3537,5.5262,0.0,0.0,0.0,0.0,0.0,0.0,0.0,0.0,0.0,0.0,0.0,0.0,0.0,0.0,5.7997,5.7997,5.7997,5.7997,5.7997,5.7997,5.7997,5.7997,5.7997,5.7997,5.7997,5.7997,5.7997,5.7997,5.7997,5.7997,5.7997,5.7997,5.7997,5.7997,5.7997,5.8097,5.9047,5.9389,5.9526,6.0482,6.08,6.08,6.08,6.08,6.08,6.08,6.08,6.08,6.08,6.08,6.08,6.08,6.08,6.08,6.08,6.08,6.08,6.08,6.08,6.08,6.08,6.1493,6.2089,6.2089,6.3493,6.4609,6.4609,6.534,6.5897,6.5897,6.5897,6.5897,6.5897,6.5897,6.5897,6.5897,6.5897,6.5897,6.5897,6.5897,6.5897,6.5897,6.5897,6.5513,6.4705,6.5493,6.507,6.3397,6.3397,6.2954,6.207,6.1396,6.117,2.6869,2.9035,3.1366,3.3091,3.4963,3.711,3.9863,4.1167,4.2139,4.3369,4.4433,4.5498,4.6709,4.9627,5.1408,5.0068,5.216,5.4326,5.5427,0.0,0.0,0.0,0.0,0.0,0.0,0.0,0.0,0.0,0.0,0.0,0.0,0.0,0.0,5.7997,5.7997,5.7997,5.7997,5.7997,5.7997,5.7997,5.7997,5.7997,5.7997,5.7997,5.7997,5.7997,5.7997,5.7997,5.7997,5.7997,5.7997,5.7997,5.7997,5.7997,5.807,5.8735,5.9158,5.9492,6.0132,6.0553,6.08,6.08,6.08,6.08,6.08,6.08,6.08,6.08,6.08,6.08,6.08,6.08,6.08,6.08,6.08,6.08,6.08,6.08,6.08,6.08,6.1069,6.1281,6.1281,6.2685,6.3801,6.3801,6.4993,6.5897,6.5897,6.5897,6.5897,6.5897,6.5897,6.5897,6.5897,6.5897,6.5667,6.5128,6.559,6.5897,6.5897,6.5897,6.5493,6.4628,6.4916,6.4243,6.2551,6.2551,6.2147,6.1396,6.1127,6.1151,2.6979,2.9108,3.177,3.3366,3.5881,3.8781,4.1956,4.3956,4.5424,4.6452,4.7131,4.7792,4.8563,5.0325,5.1555,5.1224,5.3206,5.506,0.0,0.0,0.0,0.0,0.0,0.0,0.0,0.0,0.0,0.0,0.0,0.0,0.0,0.0,0.0,0.0,5.7997,5.7997,5.7997,5.7997,5.7997,5.7997,5.7997,5.7997,5.7997,5.7997,5.7997,5.7997,5.7997,5.7997,5.7997,5.7997,5.7997,5.7997,5.7997,5.7997,5.807,5.8694,5.9102,5.9492,6.0103,6.0527,6.08,6.08,6.08,6.08,6.08,6.08,6.08,6.08,6.08,6.08,6.08,6.08,6.08,6.08,6.08,6.08,6.08,6.08,6.08,6.08,6.08,6.08,6.08,6.1973,6.2916,6.2916,6.4147,6.5186,6.5455,6.5493,6.559,6.5859,6.5897,6.5897,6.5897,6.5897,6.5532,6.4666,6.5166,6.5378,6.5089,6.534,6.4955,6.382,6.407,6.3358,6.1685,6.2012,6.1762,6.0993,6.1112,6.1285,3.0375,3.0797,3.2228,3.5477,3.634,3.7643,4.2415,4.3516,4.4433,4.7664,4.7058,4.6709,4.915,4.8912,4.915,5.1591,5.4014,5.5868,0.0,0.0,0.0,0.0,0.0,0.0,0.0,0.0,0.0,0.0,0.0,0.0,0.0,0.0,0.0,0.0,5.7997,5.7997,5.7997,5.7997,5.7997,5.7997,5.7997,5.7997,5.7997,5.7997,5.7997,5.7997,5.7997,5.7997,5.7997,5.7997,5.7997,5.7997,5.7997,5.7997,5.8097,5.9047,5.9389,5.9526,6.0463,6.08,6.08,6.08,6.08,6.08,6.08,6.08,6.08,6.08,6.08,6.08,6.08,6.08,6.08,6.08,6.08,6.08,6.08,6.08,6.08,6.08,6.08,6.08,6.08,6.1512,6.2089,6.2089,6.2781,6.3608,6.4474,6.4589,6.4916,6.5782,6.5878,6.5878,6.5878,6.5878,6.5513,6.4628,6.4589,6.4205,6.3339,6.4128,6.3801,6.2127,6.2878,6.2474,6.08,6.18,6.1839,6.0993,6.1362,6.1497,2.7897,3.1182,3.4926,3.5312,3.9698,4.4121,4.4984,4.5186,4.6104,4.9389,5.0123,5.0233,5.0398,5.1169,0.0,5.1958,5.4014,0.0,0.0,0.0,0.0,0.0,0.0,0.0,0.0,0.0,0.0,0.0,0.0,0.0,0.0,0.0,0.0,0.0,5.7997,5.7997,5.7997,5.7997,5.7997,5.7997,5.7997,5.7997,5.7997,5.7997,5.7997,5.7997,5.7997,5.7997,5.7997,5.7997,5.7997,5.7997,5.7997,5.7997,5.8024,5.8307,5.8835,5.9424,5.9709,6.0236,6.08,6.08,6.08,6.08,6.08,6.08,6.08,6.08,6.08,6.08,6.08,6.08,6.08,6.08,6.08,6.08,6.08,6.08,6.08,6.08,6.08,6.08,6.08,6.1512,6.2089,6.2089,6.2781,6.3397,6.3647,6.3685,6.3782,6.4051,6.4455,6.4532,6.4109,6.4455,6.4166,6.2916,6.3378,6.357,6.332,6.3551,6.3185,6.2108,6.232,6.1954,6.0935,6.1243,6.1358,6.1362,6.1458,6.1557,3.1659,3.4981,3.8469,3.9551,4.2763,4.5975,4.7113,4.737,4.8012,5.0325,5.093,5.1187,5.1683,5.2289,0.0,0.0,0.0,0.0,0.0,0.0,0.0,0.0,0.0,0.0,0.0,0.0,0.0,0.0,0.0,0.0,0.0,0.0,0.0,0.0,5.7997,5.7997,5.7997,5.7997,5.7997,5.7997,5.7997,5.7997,5.7997,5.7997,5.7997,5.7997,5.7997,5.7997,5.7997,5.7997,5.7997,5.7997,5.7997,5.7997,5.8042,5.8213,5.8632,5.9195,5.9545,6.0055,6.0553,6.0734,6.08,6.08,6.08,6.08,6.08,6.08,6.08,6.08,6.08,6.08,6.08,6.08,6.08,6.08,6.08,6.08,6.08,6.08,6.08,6.08,6.08,6.1243,6.157,6.157,6.2281,6.282,6.282,6.3108,6.3397,6.3628,6.3974,6.3955,6.3358,6.3628,6.3397,6.232,6.2704,6.2781,6.2339,6.2647,6.2435,6.1589,6.1627,6.1435,6.0993,6.1131,6.1304,6.1501,6.1535,6.1616,3.8303,4.0084,4.2029,4.5828,4.5351,4.4911,4.871,4.9646,4.9921,5.0747,5.038,5.06,5.2803,5.2656,5.2949,0.0,0.0,0.0,0.0,0.0,0.0,0.0,0.0,0.0,0.0,0.0,0.0,0.0,0.0,0.0,0.0,0.0,0.0,5.7997,5.7997,5.7997,5.7997,5.7997,5.7997,0.0,5.7997,5.7997,5.7997,5.7997,5.7997,5.7997,5.7997,5.7997,5.7997,5.7997,5.7997,5.7997,5.7997,5.7997,5.807,5.8484,5.8654,5.8835,5.9709,6.0055,6.0161,6.0647,6.08,6.08,6.08,6.08,6.08,6.08,6.08,6.08,6.08,6.08,6.08,6.08,6.08,6.08,6.08,6.08,6.08,6.08,6.08,6.08,6.08,6.08,6.08,6.08,6.1454,6.1973,6.1973,6.2627,6.3281,6.382,6.3878,6.3666,6.3128,6.307,6.2858,6.2377,6.2339,6.1877,6.0839,6.155,6.1608,6.0819,6.0935,6.1012,6.1031,6.1362,6.1527,6.152,6.1641,6.1699,3.3036,3.7074,4.1625,4.3736,4.5773,4.7682,4.9224,5.0086,5.0765,5.1573,5.2105,5.2582,5.3115,5.3573,0.0,0.0,0.0,0.0,0.0,0.0,0.0,0.0,0.0,0.0,0.0,0.0,0.0,0.0,0.0,0.0,0.0,0.0,0.0,5.7997,5.7997,5.7997,5.7997,5.7997,5.7997,0.0,5.7997,5.7997,5.7997,5.7997,5.7997,5.7997,5.7997,5.7997,5.7997,5.7997,5.7997,5.7997,5.7997,5.7997,5.7997,5.8097,5.8375,5.8756,5.9354,5.9773,6.0161,6.0647,6.08,6.08,6.08,6.08,6.08,6.08,6.08,6.08,6.08,6.08,6.08,6.08,6.08,6.08,6.08,6.08,6.08,6.08,6.08,6.08,6.08,6.08,6.08,6.08,6.0954,6.1069,6.1069,6.1223,6.1396,6.1512,6.1531,6.1473,6.1358,6.1339,6.1281,6.1166,6.1166,6.105,6.08,6.0973,6.1031,6.0954,6.1031,6.1189,6.1401,6.1458,6.1555,6.1657,6.1695,6.1699,3.5092,3.8799,4.2341,4.5112,4.7058,4.8636,4.9884,5.049,5.1151,5.2325,5.2913,5.3206,5.3206,0.0,0.0,0.0,0.0,0.0,0.0,0.0,0.0,0.0,0.0,0.0,0.0,0.0,0.0,0.0,0.0,0.0,0.0,5.7997,5.7997,5.7997,5.7997,5.7997,5.7997,5.7997,5.7997,5.7997,5.7997,5.7997,5.7997,5.7997,5.7997,5.7997,5.7997,5.7997,5.7997,5.7997,5.7997,5.7997,5.7997,5.7997,5.7997,5.7997,5.8168,5.8442,5.9158,5.9578,5.9885,6.0578,6.08,6.08,6.08,6.08,6.08,6.08,6.08,6.08,6.08,6.08,6.08,6.08,6.08,6.08,6.08,6.08,6.08,6.08,6.08,6.08,6.08,6.08,6.08,6.08,6.08,6.08,6.08,6.08,6.08,6.08,6.08,6.08,6.08,6.08,6.08,6.08,6.08,6.08,6.08,6.08,6.0819,6.0896,6.1131,6.1324,6.1439,6.1543,6.1631,6.1699,6.1699,6.1699,3.7551,4.0726,4.3277,4.7297,4.8306,4.8746,5.0417,5.0802,5.1261,5.2876,5.3206,5.3206,0.0,0.0,0.0,0.0,0.0,0.0,0.0,0.0,0.0,0.0,0.0,0.0,0.0,0.0,0.0,0.0,0.0,0.0,5.7997,5.7997,5.7997,5.7997,5.7997,5.7997,5.7997,5.7997,5.7997,5.7997,5.7997,5.7997,5.7997,5.7997,5.7997,5.7997,5.7997,5.7997,5.7997,5.7997,5.7997,5.7997,5.7997,5.7997,5.7997,5.7997,5.7997,5.8142,5.9084,5.9389,5.9559,6.0482,6.08,6.08,6.08,6.08,6.08,6.08,6.08,6.08,6.08,6.08,6.08,6.08,6.08,6.08,6.08,6.08,6.08,6.08,6.08,6.08,6.08,6.08,6.08,6.08,6.08,6.08,6.08,6.08,6.08,6.08,6.08,6.08,6.08,6.08,6.08,6.08,6.08,6.08,6.08,6.0896,6.0954,6.0954,6.129,6.1447,6.1466,6.1609,6.1699,6.1699,6.1699,6.1699,3.1201,3.6872,4.3277,4.7297,4.8306,4.8746,5.0417,5.0802,5.1261,0.0,5.3206,0.0,0.0,0.0,0.0,0.0,0.0,0.0,0.0,0.0,0.0,0.0,0.0,0.0,0.0,0.0,0.0,0.0,0.0,0.0,5.7997,5.7997,5.7997,5.7997,5.7997,5.7997,5.7997,5.7997,5.7997,5.7997,5.7997,5.7997,5.7997,5.7997,5.7997,5.7997,5.7997,5.7997,5.7997,5.7997,5.7997,5.7997,5.7997,5.7997,5.7997,5.7997,5.7997,5.8142,5.9084,5.9389,5.9559,6.0482,6.08,6.08,6.08,6.08,6.08,6.08,6.08,6.08,6.08,6.08,6.08,6.08,6.08,6.08,6.08,6.08,6.08,6.08,6.08,6.08,6.08,6.08,6.08,6.08,6.08,6.08,6.08,6.08,6.08,6.08,6.08,6.08,6.08,6.08,6.08,6.08,6.08,6.08,6.08,6.1304,6.1574,6.1574,6.1627,6.1662,6.1662,6.1698,6.1699,6.1699,6.1699,6.1699,3.2963,3.8212,4.3277,4.7297,4.8306,4.8746,5.0417,5.0802,5.1261,5.2876,5.3206,0.0,0.0,0.0,0.0,0.0,0.0,0.0,0.0,0.0,0.0,0.0,0.0,0.0,0.0,0.0,0.0,0.0,0.0,5.7997,5.7997,5.7997,5.7997,5.7997,5.7997,5.7997,5.7997,5.7997,5.7997,5.7997,5.7997,5.7997,5.7997,5.7997,5.7997,5.7997,5.7997,5.7997,5.7997,5.7997,5.7997,5.7997,5.7997,5.7997,5.7997,5.7997,5.7997,5.8142,5.9084,5.9389,5.9559,6.0482,6.08,6.08,6.08,6.08,6.08,6.08,6.08,6.08,6.08,6.08,6.08,6.08,6.08,6.08,6.08,6.08,6.08,6.08,6.08,6.08,6.08,6.08,6.08,6.08,6.08,6.08,6.08,6.08,6.08,6.08,6.08,6.08,6.08,6.08,6.08,6.08,6.08,6.0964,6.1295,6.1558,6.1695,6.1695,6.1697,6.1699,6.1699,6.1699,6.1699,6.1699,6.1699,6.1699,3.3421,3.7533,4.0946,4.5608,4.7241,4.8251,5.0325,5.0967,5.1499,0.0,0.0,0.0,0.0,0.0,0.0,0.0,0.0,0.0,0.0,0.0,0.0,0.0,0.0,0.0,0.0,0.0,0.0,0.0,0.0,5.7997,5.7997,5.7997,5.7997,5.7997,5.7997,5.7997,5.7997,5.7997,5.7997,5.7997,5.7997,5.7997,5.7997,5.7997,5.7997,5.7997,5.7997,5.7997,5.7997,5.7997,5.7997,5.7997,5.7997,5.7997,5.7997,5.7997,5.7997,5.8142,5.9084,5.9389,5.9559,6.0482,6.08,6.08,6.08,6.08,6.08,6.08,6.08,6.08,6.08,6.08,6.08,6.08,6.08,6.08,6.08,6.08,6.08,6.08,6.08,6.08,6.08,6.08,6.08,6.08,6.08,6.08,6.08,6.08,6.08,6.08,6.08,6.08,6.08,6.08,6.08,6.08,6.0945,6.1226,6.1679,6.1699,6.1699,6.1699,6.1699,6.1699,6.1699,6.1699,6.1699,6.1699,6.1699,6.1699,2.8301,3.1212,3.4633,4.102,4.4323,4.6856,5.0068,5.1389,5.2179,5.3041,0.0,0.0,0.0,0.0,0.0,0.0,0.0,0.0,0.0,0.0,0.0,0.0,0.0,0.0,0.0,0.0,0.0,0.0,0.0,5.7997,5.7997,5.7997,5.7997,5.7997,5.7997,5.7997,5.7997,5.7997,5.7997,5.7997,5.7997,5.7997,5.7997,5.7997,5.7997,5.7997,5.7997,5.7997,5.7997,5.7997,5.7997,5.7997,5.7997,5.7997,5.7997,5.7997,5.7997,5.8142,5.9084,5.9389,5.9559,6.0482,6.08,6.08,6.08,6.08,6.08,6.08,6.08,6.08,6.08,6.08,6.08,6.08,6.08,6.08,6.08,6.08,6.08,6.08,6.08,6.08,6.08,6.08,6.08,6.08,6.08,6.08,6.08,6.08,6.08,6.08,6.08,6.08,6.08,6.08,6.08,6.08,6.1334,6.1678,6.1699,6.1699,6.1699,6.1699,6.1699,6.1699,6.1699,6.1699,6.1699,6.1699,6.1699,6.1699,2.7893,3.0026,3.2375,3.7845,4.1809,4.4929,4.715,4.9903,5.2234,5.3041,0.0,0.0,0.0,0.0,0.0,0.0,0.0,0.0,0.0,0.0,0.0,0.0,0.0,0.0,0.0,0.0,0.0,0.0,0.0,0.0,5.7997,5.7997,5.7997,5.7997,5.7997,5.7997,5.7997,5.7997,5.7997,5.7997,5.7997,5.7997,5.7997,5.7997,5.7997,5.7997,5.7997,5.7997,5.7997,5.7997,5.7997,5.7997,5.7997,5.7997,5.7997,5.7997,5.7997,5.8142,5.9084,5.9389,5.9559,6.0482,6.08,6.08,6.08,6.08,6.08,6.08,6.08,6.08,6.08,6.08,6.08,6.08,6.08,6.08,6.08,6.08,6.08,6.08,6.08,6.08,6.08,6.08,6.08,6.08,6.08,6.08,6.08,6.08,6.08,6.08,6.08,6.08,6.08,6.08,6.08,6.08,6.1372,6.1699,6.1699,6.1699,6.1699,6.1699,6.1699,6.1699,6.1699,6.1699,6.1699,6.1699,6.1699,6.1699,2.6169,2.797,3.0228,3.5385,3.867,4.1791,4.614,4.8802,5.0894,5.2821,0.0,0.0,0.0,0.0,0.0,0.0,0.0,0.0,0.0,0.0,0.0,0.0,0.0,0.0,0.0,0.0,0.0,0.0,0.0,0.0,5.7997,5.7997,5.7997,5.7997,5.7997,5.7997,5.7997,5.7997,5.7997,5.7997,5.7997,5.7997,5.7997,5.7997,5.7997,5.7997,5.7997,5.7997,5.7997,5.7997,5.7997,5.7997,5.7997,5.7997,5.7997,5.7997,5.7997,5.8142,5.9084,5.9389,5.9559,6.0482,6.08,6.08,6.08,6.08,6.08,6.08,6.08,6.08,6.08,6.08,6.08,6.08,6.08,6.08,6.08,6.08,6.08,6.08,6.08,6.08,6.08,6.08,6.08,6.08,6.08,6.08,6.08,6.08,6.08,6.08,6.08,6.08,6.08,6.08,6.0901,6.1097,6.1484,6.1699,6.1699,6.1699,6.1699,6.1699,6.1699,6.1699,6.1699,6.1699,6.1699,6.1699,6.1699,6.1699,0.0,0.0,0.0,3.334,3.4807,3.7404,4.6948,4.7957,4.8049,5.2179,0.0,0.0,0.0,0.0,0.0,0.0,0.0,0.0,0.0,0.0,0.0,0.0,0.0,0.0,0.0,0.0,0.0,0.0,0.0,5.7997,5.7997,5.7997,5.7997,5.7997,5.7997,5.7997,5.7997,5.7997,5.7997,5.7997,5.7997,5.7997,5.7997,5.7997,5.7997,5.7997,5.7997,5.7997,5.7997,5.7997,5.7997,5.7997,5.7997,5.7997,5.7997,5.7997,5.7997,5.8142,5.9047,5.9389,5.9559,6.0482,6.08,6.08,6.08,6.08,6.08,6.08,6.08,6.08,6.08,6.08,6.08,6.08,6.08,6.08,6.08,6.08,6.08,6.08,6.08,6.08,6.08,6.08,6.08,6.08,6.08,6.08,6.08,6.08,6.08,6.08,6.08,6.08,6.08,6.0827,6.1081,6.1659,6.1699,6.1699,6.1699,6.1699,6.1699,6.1699,6.1699,6.1699,6.1699,6.1699,6.1699,6.1699,6.1699,6.1699,2.2564,0.0,0.0,0.0,0.0,0.0,0.0,3.9662,4.2506,4.7719,0.0,0.0,0.0,0.0,0.0,0.0,0.0,0.0,0.0,0.0,0.0,0.0,0.0,0.0,0.0,0.0,0.0,0.0,5.7997,5.7997,5.7997,5.7997,5.7997,5.7997,5.7997,5.7997,5.7997,5.7997,5.7997,5.7997,5.7997,5.7997,5.7997,5.7997,5.7997,5.7997,5.7997,5.7997,5.7997,5.7997,5.7997,5.7997,5.7997,5.7997,5.7997,5.7997,5.7997,5.8115,5.8694,5.9121,5.9492,6.0103,6.0508,6.08,6.08,6.08,6.08,6.08,6.08,6.08,6.08,6.08,6.08,6.08,6.08,6.08,6.08,6.08,6.08,6.08,6.08,6.08,6.08,6.08,6.08,6.08,6.08,6.08,6.08,6.08,6.08,6.08,6.08,6.08,6.08,6.1201,6.1525,6.1699,6.1699,6.1699,6.1699,6.1699,6.1699,6.1699,6.1699,6.1699,6.1699,6.1699,6.1699,6.1699,6.1699,6.1699,2.3187,2.3855,2.4884,2.669,0.0,0.0,0.0,0.0,0.0,0.0,0.0,0.0,0.0,0.0,0.0,0.0,0.0,0.0,0.0,0.0,0.0,0.0,0.0,0.0,0.0,0.0,0.0,5.7997,5.7997,5.7997,5.7997,5.7997,5.7997,5.7997,5.7997,5.7997,5.7997,5.7997,5.7997,5.7997,5.7997,5.7997,5.7997,5.7997,5.7997,5.7997,5.7997,5.7997,5.7997,5.7997,5.7997,5.7997,5.7997,5.7997,5.7997,5.7997,5.7997,5.8115,5.8775,5.9195,5.9492,6.018,6.0578,6.08,6.08,6.08,6.08,6.08,6.08,6.08,6.08,6.08,6.08,6.08,6.08,6.08,6.08,6.08,6.08,6.08,6.08,6.08,6.08,6.08,6.08,6.08,6.08,6.08,6.08,6.08,6.08,6.08,6.08,6.08,6.08,6.1344,6.1699,6.1699,6.1699,6.1699,6.1699,6.1699,6.1699,6.1699,6.1699,6.1699,6.1699,6.1699,6.1699,6.1699,6.1699,6.1699,2.4284,2.4668,2.565,0.0,0.0,0.0,0.0,0.0,0.0,0.0,0.0,0.0,0.0,0.0,0.0,0.0,0.0,0.0,0.0,0.0,0.0,0.0,0.0,0.0,0.0,5.7997,5.7997,5.7997,5.7997,5.7997,5.7997,5.7997,5.7997,5.7997,5.7997,5.7997,5.7997,5.7997,5.7997,5.7997,5.7997,5.7997,5.7997,5.7997,5.7997,5.7997,5.7997,5.7997,5.7997,5.7997,5.7997,5.7997,5.7997,5.7997,5.7997,5.7997,5.8024,5.8213,5.9047,5.9389,5.9611,6.0437,6.0757,6.08,6.08,6.08,6.08,6.08,6.08,6.08,6.08,6.08,6.08,6.08,6.08,6.08,6.08,6.08,6.08,6.08,6.08,6.08,6.08,6.08,6.08,6.08,6.08,6.08,6.08,6.08,6.08,6.08,6.08,6.085,6.0882,6.1397,6.1699,6.1699,6.1699,6.1699,6.1699,6.1699,6.1699,6.1699,6.1699,6.1699,6.1699,6.1699,6.1699,6.1699,6.1699,6.1699,0.0,0.0,0.0,0.0,0.0,0.0,0.0,2.9567,3.1568,0.0,3.7074,0.0,0.0,0.0,0.0,0.0,0.0,0.0,0.0,0.0,0.0,0.0,0.0,0.0,0.0,5.7997,5.7997,5.7997,5.7997,5.7997,5.7997,5.7997,5.7997,5.7997,5.7997,5.7997,5.7997,5.7997,5.7997,5.7997,5.7997,5.7997,5.7997,5.7997,5.7997,5.7997,5.7997,5.7997,5.7997,5.7997,5.7997,5.7997,5.7997,5.7997,5.7997,5.7997,5.8238,5.8591,5.8756,5.9319,5.9996,6.0161,6.0482,6.08,6.08,6.08,6.08,6.08,6.08,6.08,6.08,6.08,6.08,6.08,6.08,6.08,6.08,6.08,6.08,6.08,6.08,6.08,6.08,6.08,6.08,6.08,6.08,6.08,6.08,6.08,6.08,6.08,6.08,6.1,6.149,6.1635,6.1699,6.1699,6.1699,6.1699,6.1699,6.1699,6.1699,6.1699,6.1699,6.1699,6.1699,6.1699,6.1699,6.1699,6.1699,6.1699,0.0,0.0,0.0,2.6846,0.0,0.0,0.0,0.0,3.1091,3.6358,3.6486,3.6762,0.0,0.0,0.0,0.0,0.0,0.0,0.0,0.0,0.0,0.0,0.0,0.0,0.0,5.7997,5.7997,5.7997,5.7997,5.7997,5.7997,5.7997,5.7997,5.7997,5.7997,5.7997,5.7997,5.7997,5.7997,5.7997,5.7997,5.7997,5.7997,5.7997,5.7997,5.7997,5.7997,5.7997,5.7997,5.7997,5.7997,5.7997,5.7997,5.7997,5.8042,5.8282,5.8484,5.8775,5.9231,5.9709,6.0132,6.0365,6.0622,6.08,6.08,6.08,6.08,6.08,6.08,6.08,6.08,6.08,6.08,6.08,6.08,6.08,6.08,6.08,6.08,6.08,6.08,6.08,6.08,6.08,6.08,6.08,6.08,6.08,6.08,6.08,6.08,6.08,6.08,6.1051,6.1656,6.1699,6.1699,6.1699,6.1699,6.1699,6.1699,6.1699,6.1699,6.1699,6.1699,6.1699,6.1699,6.1699,6.1699,6.1699,6.1699,6.1699,0.0,0.0,0.0,0.0,0.0,2.8073,0.0,0.0,0.0,0.0,0.0,0.0,0.0,0.0,0.0,0.0,0.0,0.0,0.0,0.0,0.0,0.0,0.0,0.0,0.0,0.0,5.7005,5.7923,5.7134,5.7024,5.7941,5.7997,5.7997,5.7997,5.7997,5.7997,5.7997,5.7997,5.7997,5.7997,5.7997,5.7997,5.7997,5.7997,5.7997,5.7997,5.7997,5.7997,5.7997,5.7997,5.7997,5.7997,5.7997,5.7997,5.807,5.8526,5.8775,5.8951,5.9823,6.0161,6.0311,6.069,6.08,6.08,6.08,6.08,6.08,6.08,6.08,6.08,6.08,6.08,6.08,6.08,6.08,6.08,6.08,6.08,6.08,6.08,6.08,6.08,6.08,6.08,6.08,6.08,6.08,6.08,6.08,6.08,6.08,6.08,6.0902,6.1161,6.1658,6.1699,6.1699,6.1699,6.1699,6.1699,6.1699,6.1699,6.1699,6.1699,6.1699,6.1699,6.1699,6.1699,6.1699,6.1699,6.1699,6.1699,0.0,0.0,0.0,0.0,3.0237,0.0,0.0,0.0,2.8007,2.7331,0.0,0.0,0.0,0.0,0.0,0.0,0.0,0.0,0.0,0.0,0.0,0.0,0.0,0.0,0.0,0.0,0.0,5.7685,5.4032,5.3482,5.7776,5.7997,5.7997,5.7997,5.7997,5.7997,5.7997,5.7997,5.7997,5.7997,5.7997,5.7997,5.7997,5.7997,5.7997,5.7997,5.7997,5.7997,5.7997,5.7997,5.7997,5.7997,5.7997,5.7997,5.807,5.8526,5.8971,5.9408,5.9916,6.0365,6.0734,6.0781,6.08,6.08,6.08,6.08,6.08,6.08,6.08,6.08,6.08,6.08,6.08,6.08,6.08,6.08,6.08,6.08,6.08,6.08,6.08,6.08,6.08,6.08,6.08,6.08,6.08,6.08,6.08,6.08,6.08,6.08,6.1284,6.1633,6.1699,6.1699,6.1699,6.1699,6.1699,6.1699,6.1699,6.1699,6.1699,6.1699,6.1699,6.1699,6.1699,6.1699,6.1699,6.1699,6.1699,6.1699,0.0,0.0,0.0,0.0,0.0,0.0,2.6922,0.0,2.5768,0.0,0.0,0.0,0.0,0.0,0.0,0.0,0.0,0.0,0.0,0.0,0.0,0.0,0.0,0.0,0.0,0.0,0.0,0.0,0.0,5.2913,5.774,5.7997,5.7997,5.7997,5.7997,5.7997,5.7997,5.7997,5.7997,5.7997,5.7997,5.7997,5.7997,5.7997,5.7997,5.7997,5.7997,5.7997,5.7997,5.7997,5.7997,5.7997,5.7997,5.8186,5.8442,5.8933,5.9389,5.9885,6.0338,6.0622,6.08,6.08,6.08,6.08,6.08,6.08,6.08,6.08,6.08,6.08,6.08,6.08,6.08,6.08,6.08,6.08,6.08,6.08,6.08,6.08,6.08,6.08,6.08,6.08,6.08,6.08,6.08,6.08,6.08,6.08,6.08,6.08,6.1334,6.1699,6.1699,6.1699,6.1699,6.1699,6.1699,6.1699,6.1699,6.1699,6.1699,6.1699,6.1699,6.1699,6.1699,6.1699,6.1699,6.1699,6.1699,6.1699,3.3152,0.0,0.0,0.0,0.0,0.0,0.0,0.0,0.0,0.0,0.0,0.0,0.0,0.0,0.0,0.0,0.0,0.0,0.0,0.0,0.0,0.0,0.0,0.0,0.0,0.0,0.0,0.0,0.0,0.0,5.7666,5.7997,5.7997,5.7997,5.7997,5.7997,5.7997,5.7997,5.7997,5.7997,5.7997,5.7997,5.7997,5.7997,5.7997,5.7997,5.7997,5.7997,5.7997,5.7997,5.807,5.8213,5.8213,5.8568,5.9121,5.9319,5.9709,6.0161,6.0647,6.08,6.08,6.08,6.08,6.08,6.08,6.08,6.08,6.08,6.08,6.08,6.08,6.08,6.08,6.08,6.08,6.08,6.08,6.08,6.08,6.08,6.08,6.08,6.08,6.08,6.08,6.08,6.08,6.08,6.08,6.08,6.0858,6.1016,6.1446,6.1699,6.1699,6.1699,6.1699,6.1699,6.1699,6.1699,6.1699,6.1699,6.1699,6.1699,6.1699,6.1699,6.1699,6.1699,6.1699,6.1699,6.1699,6.1699,0.0,0.0,0.0,3.0295,0.0,0.0,0.0,0.0,2.8407,0.0,0.0,0.0,0.0,0.0,0.0,0.0,0.0,0.0,0.0,0.0,0.0,0.0,0.0,0.0,0.0,0.0,0.0,0.0,0.0,0.0,5.7483,5.7997,5.7997,5.7997,5.7997,5.7997,5.7997,5.7997,5.7997,5.7997,5.7997,5.7997,5.7997,5.7997,5.7997,5.7997,5.7997,5.7997,5.7997,5.7997,5.8282,5.8654,5.8654,5.9248,5.9996,5.9559,5.9709,6.0161,6.0647,6.08,6.08,6.08,6.08,6.08,6.08,6.08,6.08,6.08,6.08,6.08,6.08,6.08,6.08,6.08,6.08,6.08,6.08,6.08,6.08,6.08,6.08,6.08,6.08,6.08,6.08,6.08,6.08,6.08,6.08,6.08,6.1016,6.1612,6.1699,6.1699,6.1699,6.1699,6.1699,6.1699,6.1699,6.1699,6.1699,6.1699,6.1699,6.1699,6.1699,6.1699,6.1699,6.1699,6.1699,6.1699,6.1699,6.1699,0.0,0.0,4.2119,3.4907,0.0,0.0,0.0,0.0,0.0,0.0,0.0,0.0,0.0,0.0,0.0,0.0,0.0,0.0,0.0,0.0,0.0,0.0,0.0,0.0,0.0,0.0,0.0,0.0,0.0,0.0,0.0,5.7997,5.7997,5.7997,5.7997,5.7997,5.7997,5.7997,5.7997,5.7997,5.7997,5.7997,5.7997,5.7997,5.7997,5.7997,5.7997,5.7997,5.7997,5.7997,5.8282,5.8694,5.8694,5.9248,6.0084,5.9916,6.0161,6.0597,6.0757,6.08,6.08,6.08,6.08,6.08,6.08,6.08,6.08,6.08,6.08,6.08,6.08,6.08,6.08,6.08,6.08,6.08,6.08,6.08,6.08,6.08,6.08,6.08,6.08,6.08,6.08,6.08,6.08,6.08,6.08,6.08,6.1034,6.1635,6.1699,6.1699,6.1699,6.1699,6.1699,6.1699,6.1699,6.1699,6.1699,6.1699,6.1699,6.1699,6.1699,6.1699,6.1699,6.1699,6.1699,6.1699,6.1699,6.1699,4.2692,4.4028,0.0,3.799,3.6877,0.0,2.9489,0.0,0.0,0.0,0.0,0.0,0.0,0.0,0.0,0.0,0.0,0.0,0.0,0.0,0.0,0.0,0.0,0.0,0.0,0.0,0.0,0.0,0.0,0.0,0.0,0.0,5.7997,5.7997,5.7997,5.7997,5.7997,5.7997,5.7997,5.7997,5.7997,5.7997,5.7997,5.7997,5.7997,5.7997,5.7997,5.8097,5.8238,5.8238,5.8632,5.9195,5.9195,5.9677,6.0338,6.0161,6.0411,6.08,6.08,6.08,6.08,6.08,6.08,6.08,6.08,6.08,6.08,6.08,6.08,6.08,6.08,6.08,6.08,6.08,6.08,6.08,6.08,6.08,6.08,6.08,6.08,6.08,6.08,6.08,6.08,6.08,6.08,6.08,6.08,6.1001,6.1273,6.1658,6.1699,6.1699,6.1699,6.1699,6.1699,6.1699,6.1699,6.1699,6.1699,6.1699,6.1699,6.1699,6.1699,6.1699,6.1699,6.1699,6.1699,6.1699,6.1699,6.1699]},{"header":{"parameterUnit":"m.s-1","parameterCategory":1,"la1":30.6,"la2":29.2853,"lo1":-89.7004,"lo2":-87.6739,"dx":0.0162,"dy":0.0183,"nx":112,"ny":82,"refTime":"2023-01-06T18:00:00:Z","depth":0,"parameterNumber":3,"parameterNumberName":"V-component_of_WINDS"},"data":[0.0,0.0,0.0,0.0,0.0,0.0,0.0,0.0,0.0,0.0,0.0,0.0,0.0,0.0,0.0,0.0,0.0,0.0,0.0,0.0,0.0,0.0,0.0,0.0,0.0,0.0,0.0,0.0,0.0,0.0,0.0,0.0,0.0,0.0,0.0,0.0,0.0,0.0,0.0,0.0,0.0,0.0,0.0,0.0,0.0,0.0,0.0,0.0,0.0,0.0,0.0,0.0,0.0,0.0,0.0,0.0,0.0,0.0,0.0,0.0,0.0,0.0,0.0,0.0,0.0,0.0,0.0,0.0,0.0,0.0,0.0,0.0,0.0,0.0,0.0,0.0,0.0,0.0,0.0,0.0,0.0,0.0,0.0,0.0,0.0,0.0,0.0,0.0,0.0,0.0,0.6546,0.7014,0.7428,0.7658,0.7634,0.7512,0.7034,0.6088,0.0,0.0,0.0,0.0,0.0,0.0,0.0,0.0,0.0,0.0,0.0,0.0,0.0,0.0,0.0,0.0,0.0,0.0,0.0,0.0,0.0,0.0,0.0,0.0,0.0,0.0,0.0,0.0,0.0,0.0,0.0,0.0,0.0,0.0,0.0,0.0,0.0,0.0,0.0,0.0,0.0,0.0,0.0,0.0,0.0,0.0,0.0,0.0,0.0,0.0,0.0,0.0,0.0,0.0,0.0,0.0,0.0,0.0,0.0,0.0,0.0,0.0,0.0,0.0,0.0,0.0,0.0,0.0,0.0,0.0,0.0,0.0,0.0,0.0,0.0,0.0,0.0,0.0,0.0,0.0,0.0,0.0,0.0,0.0,0.0,0.0,0.0,0.0,0.0,0.0,0.0,0.0,0.0,0.0,0.0,0.0,0.0,0.0,0.0,0.0,0.0,0.0,0.0,0.0,0.6359,0.755,0.7855,0.7919,0.779,0.7756,0.7255,0.6101,0.0,0.0,0.0,0.0,0.0,0.0,0.0,0.0,0.0,0.0,0.0,0.0,0.0,0.0,0.0,0.0,0.0,0.0,0.0,0.0,0.0,0.0,0.0,0.0,0.0,0.0,0.0,0.0,0.0,0.0,0.0,0.0,0.0,0.0,0.0,0.0,0.0,0.0,0.0,0.0,0.0,0.0,0.0,0.0,0.0,0.0,0.0,0.0,0.0,0.0,0.0,0.0,0.0,0.0,0.0,0.0,0.0,0.0,0.0,0.0,0.0,0.0,0.0,0.0,0.0,0.0,0.0,0.0,0.0,0.0,0.0,0.0,0.0,0.0,0.0,0.0,0.0,0.0,0.0,0.0,0.0,0.0,0.0,0.0,0.0,0.0,0.0,0.0,0.0,0.0,0.0,0.0,0.0,0.0,0.0,0.0,0.0,0.0,0.0,0.0,0.0,0.0,0.0,0.6268,0.6888,0.7834,0.7997,0.8011,0.794,0.7858,0.7336,0.6224,0.58,0.0,0.0,0.0,0.0,0.0,0.0,0.0,0.0,0.0,0.0,0.0,0.0,0.0,0.0,0.0,0.0,0.0,0.0,0.0,0.0,0.0,0.0,0.0,0.0,0.0,0.0,0.0,0.0,0.0,0.0,0.0,0.0,0.0,0.0,0.0,0.0,0.0,0.0,0.0,0.0,0.0,0.0,0.0,0.0,0.0,0.0,0.0,0.0,0.0,0.0,0.0,0.0,0.0,0.0,0.0,0.0,0.0,0.0,0.0,0.0,0.0,0.0,0.0,0.0,0.0,0.0,0.0,0.0,0.0,0.0,0.0,0.0,0.0,0.0,0.0,0.0,0.0,0.0,0.0,0.0,0.0,0.0,0.0,0.0,0.0,0.0,0.0,0.0,0.0,0.0,0.0,0.0,0.0,0.0,0.0,0.0,0.0,0.0,0.0,0.0,0.0,0.0,0.7109,0.7529,0.7991,0.8038,0.8038,0.8038,0.7933,0.7407,0.6329,0.5939,0.0,0.0,0.0,0.0,0.0,0.0,0.0,0.0,0.0,0.0,0.0,0.0,0.0,0.0,0.0,0.0,0.0,0.0,0.0,0.0,0.0,0.0,0.0,0.0,0.0,0.0,0.0,0.0,0.0,0.0,0.0,0.0,0.0,0.0,0.0,0.0,0.0,0.0,0.0,0.0,0.0,0.0,0.0,0.0,0.0,0.0,0.0,0.0,0.0,0.0,0.0,0.0,0.0,0.0,0.0,0.0,0.0,0.0,0.0,0.0,0.0,0.0,0.0,0.0,0.0,0.0,0.0,0.0,0.0,0.0,0.0,0.0,0.0,0.0,0.0,0.0,0.0,0.0,0.0,0.0,0.0,0.0,0.0,0.0,0.0,0.0,0.0,0.0,0.0,0.0,0.0,0.0,0.0,0.0,0.0,0.0,0.0,0.0,0.0,0.0,0.0,0.0,0.7285,0.7991,0.8035,0.8038,0.8038,0.8038,0.8028,0.7519,0.6335,0.623,0.0,0.0,0.0,0.0,0.0,0.0,0.0,0.0,0.0,0.0,0.0,0.0,0.0,0.0,0.0,0.0,0.0,0.0,0.0,0.0,0.0,0.0,0.0,0.0,0.0,0.0,0.0,0.0,0.0,0.0,0.0,0.0,0.0,0.0,0.0,0.0,0.0,0.0,0.0,0.0,0.0,0.0,0.0,0.0,0.0,0.0,0.0,0.0,0.0,0.0,0.0,0.0,0.0,0.0,0.0,0.0,0.0,0.0,0.0,0.0,0.0,0.0,0.0,0.0,0.0,0.0,0.0,0.0,0.0,0.0,0.0,0.0,0.0,0.0,0.0,0.0,0.0,0.0,0.0,0.0,0.0,0.0,0.0,0.0,0.0,0.0,0.0,0.0,0.0,0.0,0.0,0.0,0.0,0.0,0.0,0.0,0.0,0.0,0.0,0.0,0.0,0.0,0.6973,0.7624,0.0,0.8038,0.8038,0.8038,0.8038,0.7529,0.6335,0.0,0.0,0.0,0.0,0.0,0.0,0.0,0.0,0.0,0.0,0.0,0.0,0.0,0.0,0.0,0.0,0.0,0.0,0.0,0.0,0.0,0.0,0.0,0.0,0.0,0.0,0.0,0.0,0.0,0.0,0.0,0.0,0.0,0.0,0.0,0.0,0.0,0.0,0.0,0.0,0.0,0.0,0.0,0.0,0.0,0.0,0.0,0.0,0.0,0.0,0.0,0.0,0.0,0.0,0.0,0.0,0.0,0.0,0.0,0.0,0.0,0.0,0.0,0.0,0.0,0.0,0.0,0.0,0.0,0.0,0.0,0.0,0.0,0.0,0.0,0.0,0.0,0.0,0.0,0.0,0.0,0.0,0.0,0.0,0.0,0.0,0.0,0.0,0.0,0.0,0.0,0.0,0.0,0.0,0.0,0.0,0.0,0.0,0.0,0.0,0.0,0.0,0.6169,0.6943,0.7584,0.0,0.8038,0.8038,0.8038,0.8038,0.7529,0.6335,0.0,0.0,0.0,0.0,0.0,0.0,0.0,0.0,0.0,0.0,0.0,0.0,0.0,0.0,0.0,0.0,0.0,0.0,0.0,0.0,0.0,0.0,0.0,0.0,0.0,0.0,0.0,0.0,0.0,0.0,0.0,0.0,0.0,0.0,0.0,0.0,0.0,0.0,0.0,0.0,0.0,0.0,0.0,0.0,0.0,0.0,0.0,0.0,0.0,0.0,0.0,0.0,0.0,0.0,0.0,0.0,0.0,0.0,0.0,0.0,0.0,0.0,0.0,0.0,0.0,0.0,0.0,0.0,0.0,0.0,0.0,0.0,0.0,0.0,0.0,0.0,0.0,0.0,0.0,0.0,0.0,0.0,0.0,0.0,0.0,0.0,0.0,0.0,0.0,0.0,0.0,0.0,0.0,0.0,0.0,0.0,0.0,0.0,0.0,0.0,0.0,0.0,0.6224,0.7302,0.8038,0.8041,0.8041,0.8038,0.8038,0.8038,0.7529,0.0,0.0,0.0,0.0,0.0,0.0,0.0,0.0,0.0,0.0,0.0,0.0,0.0,0.0,0.0,0.0,0.0,0.0,0.0,0.0,0.0,0.0,0.0,0.0,0.0,0.0,0.0,0.0,0.0,0.0,0.0,0.0,0.0,0.0,0.0,0.0,0.0,0.0,0.0,0.0,0.0,0.0,0.0,0.0,0.0,0.0,0.0,0.0,0.0,0.0,0.0,0.0,0.0,0.0,0.0,0.0,0.0,0.0,0.0,0.0,0.0,0.0,0.0,0.0,0.0,0.0,0.0,0.0,0.0,0.0,0.0,0.0,0.0,0.0,0.0,0.0,0.0,0.0,0.0,0.0,0.0,0.0,0.0,0.0,0.0,0.0,0.0,0.0,0.0,0.0,0.0,0.0,0.0,0.0,0.0,0.0,0.0,0.0,0.0,0.0,0.0,0.0,0.0,0.6356,0.7363,0.8082,0.8191,0.8106,0.8038,0.8038,0.8038,0.7529,0.6335,0.0,0.0,0.0,0.0,0.0,0.0,0.0,0.0,0.0,0.0,0.0,0.0,0.0,0.0,0.0,0.0,0.0,0.0,0.0,0.0,0.0,0.0,0.0,0.0,0.0,0.0,0.0,0.0,0.0,0.0,0.0,0.0,0.0,0.0,0.0,0.0,0.0,0.0,0.0,0.0,0.0,0.0,0.0,0.0,0.0,0.0,0.0,0.0,0.0,0.0,0.0,0.0,0.0,0.0,0.0,0.0,0.0,0.0,0.0,0.0,0.0,0.0,0.0,0.0,0.0,0.0,0.0,0.0,0.0,0.0,0.0,0.0,0.0,0.0,0.0,0.0,0.0,0.0,0.0,0.0,0.0,0.0,0.0,0.0,0.0,0.0,0.0,0.0,0.0,0.0,0.0,0.0,0.0,0.0,0.0,0.0,0.0,0.0,0.0,0.0,0.0,0.0,0.6424,0.7492,0.8252,0.8343,0.8272,0.8218,0.8218,0.8163,0.7723,0.6766,0.0,0.0,0.0,0.0,0.0,0.0,0.0,0.0,0.0,0.0,0.0,0.0,0.0,0.0,0.0,0.0,0.0,0.0,0.0,0.0,0.0,0.0,0.0,0.0,0.0,0.0,0.0,0.0,0.0,0.0,0.0,0.0,0.0,0.0,0.0,0.0,0.0,0.0,0.0,0.0,0.0,0.0,0.0,0.0,0.0,0.0,0.0,0.0,0.0,0.0,0.0,0.0,0.0,0.0,0.0,0.0,0.0,0.0,0.0,0.0,0.0,0.0,0.0,0.0,0.0,0.0,0.0,0.0,0.0,0.0,0.0,0.0,0.0,0.0,0.0,0.0,0.0,0.0,0.0,0.0,0.0,0.0,0.0,0.0,0.0,0.0,0.0,0.0,0.0,0.0,0.0,0.0,0.0,0.0,0.0,0.0,0.0,0.0,0.0,0.0,0.0,0.0,0.6474,0.7665,0.8486,0.8503,0.8489,0.8482,0.8482,0.8364,0.8031,0.7431,0.0,0.0,0.0,0.0,0.0,0.0,0.0,0.0,0.0,0.0,0.0,0.0,0.0,0.0,0.0,0.0,0.0,0.0,0.0,0.0,0.0,0.0,0.0,0.0,0.0,0.0,0.0,0.0,0.0,0.0,0.0,0.0,0.0,0.0,0.0,0.0,0.0,0.0,0.0,0.0,0.0,0.0,0.0,0.0,0.0,0.0,0.0,0.0,0.0,0.0,0.0,0.0,0.0,0.0,0.0,0.0,0.0,0.0,0.0,0.0,0.5196,0.0,0.0,0.0,0.0,0.0,0.0,0.0,0.0,0.0,0.0,0.0,0.0,0.0,0.0,0.0,0.0,0.0,0.0,0.0,0.0,0.0,0.0,0.0,0.0,0.0,0.0,0.0,0.0,0.0,0.0,0.0,0.0,0.0,0.0,0.0,0.0,0.0,0.0,0.0,0.0,0.0,0.6776,0.7797,0.8526,0.8648,0.8554,0.8482,0.8482,0.8455,0.8184,0.759,0.7258,0.0,0.0,0.0,0.0,0.0,0.0,0.0,0.0,0.0,0.0,0.0,0.0,0.0,0.0,0.0,0.0,0.0,0.0,0.0,0.0,0.0,0.0,0.0,0.0,0.0,0.0,0.0,0.0,0.0,0.0,0.0,0.0,0.0,0.0,0.0,0.0,0.0,0.0,0.0,0.0,0.0,0.0,0.0,0.0,0.0,0.0,0.0,0.0,0.0,0.0,0.0,0.0,0.0,0.0,0.0,0.0,0.0,0.0,0.0,0.0,0.5498,0.0,0.0,0.0,0.0,0.0,0.0,0.0,0.0,0.0,0.0,0.0,0.0,0.0,0.0,0.0,0.0,0.0,0.0,0.0,0.0,0.0,0.0,0.0,0.0,0.0,0.0,0.0,0.0,0.0,0.0,0.0,0.0,0.0,0.0,0.0,0.0,0.0,0.0,0.0,0.0,0.6878,0.7967,0.873,0.8811,0.875,0.8703,0.8703,0.8635,0.8459,0.8153,0.7723,0.0,0.0,0.0,0.0,0.0,0.0,0.0,0.0,0.0,0.0,0.0,0.0,0.0,0.0,0.0,0.0,0.0,0.0,0.0,0.0,0.0,0.0,0.0,0.0,0.0,0.0,0.0,0.0,0.0,0.0,0.0,0.0,0.0,0.0,0.0,0.0,0.0,0.0,0.0,0.0,0.0,0.0,0.0,0.0,0.0,0.0,0.0,0.0,0.0,0.0,0.0,0.0,0.0,0.7407,0.7537,0.7564,0.7327,0.7405,0.7789,0.7237,0.699,0.6851,0.0,0.0,0.0,0.0,0.0,0.0,0.0,0.0,0.0,0.0,0.0,0.0,0.0,0.0,0.0,0.0,0.0,0.0,0.0,0.0,0.0,0.0,0.0,0.0,0.0,0.6943,0.7136,0.0,0.0,0.0,0.0,0.0,0.0,0.0,0.0,0.0,0.0,0.0,0.0,0.7112,0.8248,0.9015,0.9015,0.9015,0.9015,0.9015,0.8876,0.8788,0.8788,0.8187,0.7719,0.0,0.0,0.0,0.0,0.0,0.0,0.0,0.0,0.0,0.0,0.0,0.0,0.0,0.0,0.0,0.0,0.0,0.0,0.0,0.0,0.0,0.0,0.0,0.0,0.0,0.0,0.0,0.0,0.0,0.0,0.0,0.0,0.9017,0.9199,0.0,0.0,0.0,0.0,0.0,0.0,0.0,0.0,0.0,0.0,0.0,0.0,0.0,0.0,0.9824,1.123,1.1933,1.1688,1.2129,1.2383,1.2398,1.1487,1.1086,1.1245,1.1128,0.0,0.6915,0.6756,0.0,0.0,0.0,0.0,0.0,0.0,0.0,0.0,0.0,0.0,0.0,0.0,0.0,0.0,0.0,0.0,0.0,0.0,0.0,0.0,0.0,0.0,0.7641,0.7773,0.7865,0.7929,0.0,0.6936,0.6017,0.6074,0.0,0.0,0.0,0.0,0.0,0.0,0.0,0.0,0.7987,0.8815,0.9323,0.9323,0.9323,0.9323,0.9323,0.9181,0.9093,0.9093,0.8886,0.8459,0.778,0.756,0.0,0.0,0.0,0.0,0.0,0.0,0.0,0.0,0.0,0.0,0.0,0.0,0.0,0.0,0.0,0.0,0.0,0.0,0.0,0.0,0.0,0.0,0.0,0.0,0.0,0.0,0.0,0.0,0.0,0.8468,0.8646,0.8969,0.7994,0.6867,0.0,0.0,0.0,0.0,0.0,0.0,0.0,0.0,0.0,1.1514,1.1106,1.1288,1.1958,1.2886,1.2587,1.1136,1.1328,1.1034,1.0347,0.9871,0.9624,0.9702,0.9702,0.8906,0.7526,0.7974,0.7848,0.741,0.0,0.0,0.0,0.0,0.0,0.5956,0.6569,0.0,0.0,0.0,0.0,0.0,0.0,0.0,0.0,0.0,0.0,0.0,0.0,0.0,0.0,0.8194,0.8289,0.8306,0.8374,0.7872,0.7329,0.0,0.6817,0.6359,0.542,0.0,0.0,0.0,0.0,0.7855,0.833,0.8971,0.9381,0.9381,0.9381,0.9381,0.9381,0.932,0.9283,0.9283,0.9222,0.9001,0.8584,0.8102,0.7461,0.0,0.0,0.0,0.0,0.0,0.0,0.0,0.0,0.0,0.0,0.0,0.0,0.0,0.0,0.0,0.0,0.0,0.0,0.0,0.0,0.0,0.0,0.0,0.0,0.0,0.0,0.0,0.0,0.9144,0.9105,0.9473,0.879,0.7822,0.0,0.0,0.0,0.0,0.0,0.0,1.0873,1.0628,1.1404,1.3395,1.3262,1.347,1.3966,1.426,1.3392,1.1453,1.1453,1.0965,0.9989,0.9989,0.9989,0.9989,0.9989,0.9797,0.9465,0.9027,0.8727,0.8552,0.7127,0.6474,0.64,0.662,0.6637,0.6641,0.7312,0.7468,0.7353,0.7248,0.0,0.6885,0.6363,0.0,0.0,0.0,0.0,0.6946,0.7509,0.774,0.7936,0.8377,0.8482,0.8492,0.853,0.8509,0.8364,0.0,0.7729,0.7268,0.6227,0.0,0.0,0.0,0.0,0.8431,0.8733,0.9195,0.9493,0.9493,0.9493,0.9493,0.9493,0.9459,0.9439,0.9439,0.9401,0.933,0.9215,0.8642,0.8133,0.7723,0.0,0.0,0.0,0.0,0.0,0.0,0.0,0.0,0.0,0.0,0.0,0.0,0.0,0.0,0.0,0.0,0.0,0.0,0.0,0.0,0.0,0.0,0.0,0.0,0.0,0.0,0.0,0.0,0.0,1.2051,1.1702,0.0,0.0,0.0,0.0,1.006,1.0231,1.109,1.2753,1.181,1.2631,1.5597,1.4469,1.4398,1.571,1.5724,1.5635,1.5534,1.5534,1.5439,1.5439,1.5439,1.5439,1.5439,1.5439,1.4752,1.3284,0.9563,0.7839,0.7447,0.7416,0.7054,0.6729,0.7166,0.7322,0.7383,0.7845,0.8001,0.7994,0.7987,0.7597,0.7149,0.7261,0.7,0.0,0.0,0.7628,0.7848,0.8306,0.8431,0.8445,0.8476,0.8482,0.8523,0.8669,0.8584,0.8516,0.0,0.876,0.8648,0.8014,0.0,0.8191,0.8153,0.8333,0.8733,0.9459,0.9696,0.9798,0.9798,0.9798,0.9798,0.9798,0.9676,0.9598,0.9598,0.9462,0.9378,0.9371,0.9195,0.8757,0.8031,0.7706,0.0,0.0,0.0,0.0,0.0,0.0,0.0,0.0,0.0,0.0,0.0,0.0,0.0,0.0,0.0,0.0,0.0,0.0,0.0,0.0,0.0,0.0,0.0,0.0,0.0,0.0,0.0,0.0,1.2048,1.208,0.0,1.0925,1.1578,1.2117,1.2117,1.32,1.4142,1.4813,1.4457,1.4646,1.5724,1.5343,1.5337,1.5832,1.6019,1.5221,1.3537,1.3689,1.2762,1.1051,1.1051,1.1051,1.1051,1.1051,1.0848,1.0344,0.8933,0.8614,0.8944,0.8086,0.7702,0.7594,0.7855,0.795,0.7987,0.8235,0.8323,0.8323,0.8323,0.8177,0.8014,0.8069,0.7974,0.7892,0.8106,0.8204,0.8303,0.8564,0.8628,0.8676,0.8869,0.8913,0.8954,0.911,0.91,0.9076,0.9133,0.9032,0.8777,0.8275,0.8713,0.8967,0.8479,0.894,0.9439,0.971,0.9788,0.9822,0.9822,0.9822,0.9822,0.9822,0.9774,0.9744,0.9744,0.9693,0.9625,0.9534,0.9476,0.9276,0.891,0.8703,0.7923,0.0,0.0,0.0,0.0,0.0,0.0,0.0,0.0,0.0,0.0,0.0,0.0,0.0,0.0,0.0,0.0,0.0,0.0,0.0,0.0,0.0,0.0,0.0,0.0,0.0,0.0,1.2289,1.2487,1.3008,1.2948,1.2005,1.3193,1.4122,1.4122,1.5113,1.5832,1.5832,1.5832,1.5872,1.5979,1.5979,1.6025,1.6126,1.6319,1.5505,1.3691,1.3853,1.3002,1.1263,1.1263,1.1263,1.1263,1.1263,1.0746,0.9928,0.9928,0.969,0.9384,0.8487,0.8187,0.8201,0.8303,0.834,0.8357,0.8452,0.8482,0.8482,0.8482,0.8482,0.8489,0.8543,0.856,0.857,0.8621,0.8669,0.8733,0.8832,0.8896,0.8984,0.9181,0.9228,0.9259,0.9361,0.9422,0.9459,0.9459,0.93,0.9072,0.8774,0.9256,0.9476,0.8876,0.9422,0.9863,0.9764,0.9883,0.9978,0.9978,0.9978,0.9978,0.9978,0.9788,0.9761,0.9961,0.9737,0.9646,0.9754,0.9466,0.9259,0.9157,0.9005,0.8292,0.7004,0.0,0.0,0.0,0.0,0.0,0.0,0.0,0.0,0.0,0.0,0.0,0.0,0.0,0.0,0.0,0.0,0.0,0.0,0.0,0.0,0.0,0.0,0.0,1.2882,1.3053,1.3373,1.3579,1.4703,1.5177,1.4616,1.5331,1.5832,1.5832,1.5832,1.5832,1.5845,1.5845,1.5979,1.6279,1.6286,1.642,1.67,1.6714,1.672,1.662,1.664,1.6647,1.664,1.6653,1.666,1.666,1.666,1.5107,1.2633,1.2633,1.1092,0.8611,0.8594,0.8482,0.8482,0.8486,0.8492,0.8496,0.8496,0.8496,0.8499,0.8503,0.8503,0.853,0.8682,0.873,0.876,0.891,0.9052,0.9161,0.9161,0.9269,0.9384,0.9388,0.9388,0.9391,0.9395,0.9513,0.9622,0.9622,0.9629,0.9629,0.9625,0.9741,0.9737,0.9452,0.9778,0.0,0.9666,1.0012,1.0276,1.0259,1.0259,1.0259,1.0259,0.9724,0.9642,1.0243,0.9595,0.9449,1.0032,0.9215,0.8747,0.874,0.857,0.8197,0.7614,0.0,0.0,0.0,0.0,0.0,0.0,0.0,0.0,0.0,0.0,0.0,0.0,0.0,0.0,0.0,0.0,0.0,0.0,0.0,0.0,0.0,0.0,1.342,1.3126,1.3895,1.4589,1.4877,1.5197,1.5418,1.5464,1.5685,1.5832,1.5832,1.5832,1.5925,1.6139,1.6152,1.6286,1.6573,1.6587,1.6627,1.6707,1.6921,1.6503,1.5457,1.5952,1.5595,1.4515,1.4691,1.4768,1.4768,1.4768,1.4439,1.3663,1.3663,1.3221,1.2284,0.9598,0.8482,0.8496,0.8608,0.8716,0.8815,0.8815,0.8815,0.8832,0.8937,0.8971,0.8998,0.915,0.9198,0.9205,0.9249,0.9286,0.9317,0.9317,0.9351,0.9408,0.952,0.9547,0.9574,0.968,0.9822,0.9927,0.9927,1.0019,1.0059,0.9947,1.0053,1.0127,1.0046,1.0137,0.0,1.0107,1.0205,1.0154,0.9829,0.9795,0.9795,0.9795,0.9642,0.9758,1.0249,1.0086,1.0042,1.0209,0.9873,0.9581,0.9367,0.8784,0.8296,0.0,0.0,0.0,0.0,0.0,0.0,0.0,0.0,0.0,0.0,0.0,0.0,0.0,0.0,0.0,0.0,0.0,0.0,0.0,0.0,0.0,0.0,1.3714,1.4322,1.4148,1.4716,1.5251,1.5545,1.5578,1.5645,1.5812,1.5832,1.5879,1.6005,1.6012,1.6139,1.644,1.6453,1.6587,1.6881,1.6894,1.6947,1.7074,1.7375,1.7088,1.6237,1.678,1.6539,1.576,1.5904,1.5968,0.0,1.5968,1.5175,1.404,1.404,1.3245,0.0,0.0,0.0,0.0,0.0,0.9049,0.9123,0.9123,0.9123,0.9137,0.9222,0.9249,0.9266,0.9354,0.9381,0.9381,0.9381,0.9425,0.9476,0.9476,0.952,0.9588,0.9676,0.9747,0.9819,0.9897,1.0039,1.0144,1.0144,0.0,0.0,1.0249,1.0259,1.0236,1.0107,1.0249,1.0324,1.0202,1.0348,1.0365,1.0103,1.0076,1.0076,1.0076,0.9842,0.0,0.0,0.0,0.9971,0.9907,0.9819,0.0,0.0,0.0,0.0,0.0,0.0,0.0,0.0,0.613,0.5318,0.0,0.0,0.0,0.0,0.0,0.0,0.0,0.0,0.0,0.0,0.0,0.0,0.0,0.0,0.0,0.0,1.4696,1.5444,1.5444,1.5444,1.5538,1.5798,1.5832,1.5832,1.5832,1.5858,1.5985,1.6253,1.6299,1.6453,1.674,0.0,0.0,0.0,0.0,1.7375,1.7629,1.7943,1.8096,1.8103,1.8397,1.8544,1.8544,1.8577,1.8591,1.8591,1.8591,1.7098,1.4463,1.4344,1.2409,0.9888,1.0997,1.1557,1.1327,0.9954,0.9381,0.0,0.0,0.0,0.0,0.9401,0.9408,0.9408,0.9425,0.9432,0.9432,0.9432,0.953,0.9639,0.9656,0.9751,0.9849,0.9869,0.9975,1.0076,1.0076,1.0198,1.0304,1.0304,1.0419,1.0517,1.0517,1.0412,1.0239,0.9964,1.0263,1.0422,1.0158,1.0473,1.07,1.0649,0.0,0.0,1.0643,1.0154,1.0097,1.0683,1.01,0.9666,0.9513,0.9507,0.9435,0.9283,0.9279,0.9412,0.9686,0.9686,0.9615,0.9449,0.8364,0.8475,0.0,0.0,0.0,0.0,0.0,0.0,0.0,0.0,0.0,0.0,0.0,0.0,0.0,0.0,0.0,1.4295,1.5137,1.5745,1.5745,1.5745,1.5765,1.5818,1.5832,1.5832,1.5832,1.6046,1.6213,1.6273,1.6486,1.6754,1.7048,1.7061,0.0,1.7488,1.7742,1.7903,1.7956,1.8257,1.8404,1.841,0.0,0.0,1.8844,1.9085,1.9199,1.9199,1.9199,1.884,1.8243,1.6937,1.458,1.1487,1.0285,0.9838,0.9838,0.9497,0.9381,0.9381,0.9381,0.9381,0.9401,0.9523,0.9564,0.9588,0.97,0.9737,0.0,0.9737,0.9758,0.9808,0.993,0.9985,1.0036,1.0161,1.0215,1.0236,1.0236,1.0348,1.0453,1.0453,1.0571,1.0677,1.0677,1.0653,1.0616,1.0555,1.0619,1.0656,1.0599,1.0666,1.0582,1.0215,1.0178,1.0178,1.0178,1.0073,1.0209,1.069,1.0585,1.0436,1.0283,1.0276,1.0209,1.0066,1.0063,1.0093,1.0151,1.0151,1.0137,1.009,0.9428,0.9273,0.0,0.0,0.0,0.0,0.0,0.0,0.0,0.0,0.0,0.0,0.0,1.2719,1.3313,0.0,1.4669,1.5104,1.5545,1.5832,1.5832,1.5832,1.5832,1.5832,1.5832,1.5885,1.6039,1.6186,1.6393,1.6687,1.6847,1.7054,1.7348,1.7515,1.7669,1.7809,1.811,1.827,1.827,1.8564,1.8704,1.8711,1.9005,1.9145,1.9152,1.9299,1.9366,1.9366,1.9366,1.8887,1.8046,1.6497,1.4898,1.3421,1.1559,1.0379,0.9602,0.9602,0.9602,0.9602,0.9602,0.9602,0.9612,0.969,0.9768,0.9842,0.9914,0.9992,1.0049,1.0049,1.0049,1.007,1.0144,1.0164,1.0185,1.0263,1.0334,1.0385,1.0385,1.0504,1.0605,1.0605,1.0666,1.0721,1.0721,1.0721,1.0721,1.0721,1.0721,1.0721,1.0721,1.0721,1.0633,1.0409,1.0385,1.0385,1.0385,1.0385,1.048,1.0707,1.0721,1.0683,1.0609,1.0605,1.0538,1.0388,1.0385,1.0351,1.028,1.028,1.028,1.0273,0.9971,0.9839,0.0,0.0,0.0,0.0,0.0,0.0,0.0,1.181,1.2058,1.2759,1.3293,1.3794,1.4329,1.481,1.5284,1.5752,1.5832,1.5832,1.5832,1.5832,1.5852,1.5905,1.5912,1.6012,1.6253,1.6373,1.664,1.7114,1.7201,1.7361,1.7655,1.7909,1.807,1.813,1.8417,1.8577,1.8577,1.8865,1.9011,1.9011,1.9252,1.9366,1.9372,1.9426,1.9452,1.9452,1.9512,1.8685,1.7114,1.5801,1.5199,1.4993,1.3528,1.1971,1.0393,1.0029,0.991,0.991,0.991,0.991,0.991,0.991,0.9995,1.0093,1.0093,1.0181,1.028,1.028,1.028,1.0287,1.0314,1.0321,1.0331,1.0358,1.0453,1.0534,1.0534,1.0633,1.0721,1.0721,1.0721,1.0721,1.0721,1.0721,1.0721,1.0721,1.0721,1.0721,1.0721,1.0721,1.0721,1.0721,1.0721,1.0721,1.0721,1.0721,1.0721,1.0721,1.0721,1.0721,1.0721,1.0721,1.0663,1.0538,1.0534,1.048,1.0368,1.0368,1.0368,1.0368,1.0368,1.0334,1.1042,1.0681,1.0739,1.1156,1.1503,1.2218,0.0,1.3935,1.3707,1.4823,1.5104,1.5251,1.5578,1.5685,1.5752,1.5818,1.5832,1.5832,1.5832,1.5832,1.5925,1.6192,1.6226,1.6239,1.6273,1.6747,1.7081,1.7148,1.7388,1.7669,1.7976,1.8029,1.817,1.843,1.8724,1.8878,1.8878,1.9165,1.9319,1.9319,1.9352,1.9366,1.9372,1.9633,1.9753,1.9766,2.0027,1.9261,1.7771,1.7649,1.668,1.5474,1.5226,1.4098,1.234,1.0854,1.0229,1.0229,1.0229,1.0229,1.0229,1.0229,1.0243,1.0253,1.0253,1.0266,1.028,1.028,1.028,1.031,1.0436,1.047,1.0504,1.0639,1.0683,1.0694,1.0694,1.0707,1.0721,1.0721,1.0721,1.0721,1.0721,1.0721,1.0721,1.0721,1.0721,1.0721,1.0721,1.0721,1.0721,1.0721,1.0721,1.0721,1.0721,1.0721,1.0721,1.0721,1.0721,1.0721,1.0721,1.0721,1.0711,1.0697,1.0694,1.0687,1.067,1.067,1.067,1.067,1.067,1.0531,1.2752,1.2458,1.2245,1.2832,1.3193,1.3641,1.4509,1.4549,1.4649,1.5478,1.5651,1.5685,1.5805,1.5832,1.5832,1.5832,1.5832,1.5832,1.5832,1.5979,1.6132,1.6259,1.6573,1.6787,1.6787,1.7007,1.7295,1.7642,1.7782,1.7983,1.829,1.8464,1.8611,1.8738,1.9032,1.9185,1.9185,1.9472,1.9619,1.9619,1.9786,1.9873,1.9873,2.0,2.0054,2.006,2.018,1.9857,1.9229,1.9229,1.833,1.6963,1.5956,1.452,1.3071,1.2103,1.1158,1.028,1.028,1.028,1.028,1.028,1.0337,1.0405,1.0405,1.0466,1.0534,1.0534,1.0534,1.0551,1.0609,1.0626,1.0639,1.0704,1.0721,1.0721,1.0721,1.0721,1.0721,1.0721,1.0721,1.0721,1.0721,1.0721,1.0721,1.0721,1.0721,1.0721,1.0721,1.0721,1.0721,1.0721,1.0721,1.0721,1.0721,1.0721,1.0721,1.0721,1.0721,1.0721,1.0721,1.0721,1.0721,1.0721,1.0721,1.0721,1.0721,1.0721,1.0721,1.0721,1.0721,1.0653,1.3487,1.3527,1.3554,1.3981,1.4489,1.4883,1.4883,1.505,1.5317,1.5745,1.5832,1.5832,1.5832,1.5832,1.5832,1.5832,1.5899,1.5952,1.5952,1.6206,1.642,1.6506,1.6887,1.7215,1.7382,1.7395,1.7575,1.8016,1.8123,1.8297,1.8597,1.8804,1.8958,1.9038,1.9259,1.9406,1.9486,1.9693,1.984,1.992,2.0134,2.0234,2.0234,2.0321,2.0401,2.0474,2.0474,2.0474,2.0474,2.0474,1.9585,1.8104,1.6827,1.5134,1.3291,1.3024,1.1919,1.0402,1.0402,1.0402,1.0402,1.0402,1.047,1.0555,1.0555,1.0633,1.0721,1.0721,1.0721,1.0721,1.0721,1.0721,1.0721,1.0721,1.0721,1.0721,1.0721,1.0721,1.0721,1.0721,1.0721,1.0721,1.0721,1.0721,1.0721,1.0721,1.0721,1.0721,1.0721,1.0721,1.0721,1.0721,1.0721,1.0721,1.0721,1.0721,1.0721,1.0721,1.0721,1.0721,1.0721,1.0721,1.0721,1.0721,1.0721,1.0721,1.0721,1.0721,1.0721,1.0721,1.0721,1.0721,1.2585,1.3193,1.4068,1.4082,1.4943,1.5792,1.5792,1.5798,1.5805,1.5825,1.5832,1.5832,1.5832,1.5832,1.5832,1.5832,1.6072,1.6259,1.6259,1.6513,1.68,1.7088,1.7141,1.7382,0.0,1.8016,1.8029,1.805,1.831,1.8604,1.8891,1.8918,1.9058,1.9345,1.9366,1.9499,1.9786,1.98,1.994,2.0221,2.0227,2.0234,2.0241,2.0535,2.0815,2.1082,2.1082,2.1082,2.1082,2.1082,2.0049,1.8495,1.8367,1.6296,1.332,1.3308,1.2138,1.0707,1.0707,1.0707,1.0707,1.0707,1.0711,1.0714,1.0714,1.0717,1.0721,1.0721,1.0721,1.0721,1.0721,1.0721,1.0721,1.0721,1.0721,1.0721,1.0721,1.0721,1.0721,1.0721,1.0721,1.0721,1.0721,1.0721,1.0721,1.0721,1.0721,1.0721,1.0721,1.0721,1.0721,1.0721,1.0721,1.0721,1.0721,1.0721,1.0721,1.0721,1.0721,1.0721,1.0721,1.0721,1.0721,1.0721,1.0721,1.0721,1.0721,1.0721,1.0721,1.0721,1.0721,1.0721,1.3407,1.3921,1.4516,1.5097,1.5538,1.5832,1.5832,1.5832,1.5832,1.5832,1.5832,1.5832,1.5832,1.5832,1.5892,1.6092,1.6206,1.6339,1.6533,1.6814,1.7041,1.7141,1.7321,1.7595,0.0,0.0,0.0,1.8597,1.8718,1.8905,1.9199,1.9219,1.9352,1.9646,1.9659,1.9793,2.0087,2.0287,2.0428,2.0528,2.0722,2.0815,2.0815,2.0915,2.1015,2.1109,2.1109,2.1109,2.1109,2.1109,2.0068,1.8506,1.8506,1.6431,1.3325,1.3325,1.2153,1.0721,1.0721,1.0721,1.0721,1.0721,1.0721,1.0721,1.0721,1.0721,1.0721,1.0721,1.0721,1.0721,1.0721,1.0721,1.0721,1.0721,1.0721,1.0721,1.0721,1.0721,1.0721,1.0721,1.0721,1.0721,1.0721,1.0721,1.0721,1.0721,1.0721,1.0721,1.0721,1.0721,1.0721,1.0721,1.0721,1.0721,1.0721,1.0721,1.0721,1.0721,1.0721,1.0721,1.0721,1.0721,1.0721,1.0721,1.0721,1.0721,1.0721,1.0721,1.0721,1.0721,1.0721,1.0721,1.4155,1.4536,1.4863,1.5638,1.5832,1.5832,1.5832,1.5832,1.5832,1.5832,1.5745,1.5705,1.5812,1.5832,1.5925,1.6226,1.6446,1.6653,1.684,1.7121,1.7301,1.7301,1.7569,1.7869,1.8176,0.0,0.0,1.8891,1.9025,1.9165,1.9359,1.9466,1.9606,1.9793,1.99,2.0094,2.0388,2.0581,2.0728,2.0835,2.1022,2.1109,2.1109,2.1109,2.1109,2.1109,2.1109,2.1109,2.1109,2.1109,2.0068,1.8506,1.8506,1.6695,1.4101,1.3582,1.2541,1.1501,1.0982,1.0721,1.0721,1.0721,1.0721,1.0721,1.0721,1.0721,1.0721,1.0721,1.0721,1.0721,1.0721,1.0721,1.0721,1.0721,1.0721,1.0721,1.0721,1.0721,1.0721,1.0721,1.0721,1.0721,1.0721,1.0765,1.0802,1.0802,1.0846,1.0839,1.0734,1.0768,1.0802,1.0802,1.0846,1.0856,1.0806,1.0802,1.0778,1.0724,1.0721,1.0721,1.0721,1.0721,1.0721,1.0721,1.0721,1.0721,1.0721,1.0721,1.0721,1.0721,1.0721,1.0721,1.473,1.4983,1.5137,1.5691,1.5832,1.5832,1.5832,1.5832,1.5818,1.5792,1.5565,1.5451,1.5691,1.5778,1.5905,1.6206,1.6754,1.7154,1.7174,1.7408,1.7589,1.7602,1.7869,1.817,1.8484,1.8764,0.0,1.8945,0.0,1.9366,1.9366,1.9639,1.9806,1.982,2.01,2.0401,2.0695,2.0702,2.0835,2.1109,2.1109,2.1109,2.1109,2.1109,2.1109,2.1109,2.1109,2.1109,2.1109,2.1109,2.0068,1.8634,1.8634,1.7474,1.5654,1.4101,1.332,1.2935,1.124,1.0721,1.0721,1.0721,1.0721,1.0721,1.0721,1.0721,1.0721,1.0721,1.0721,1.0721,1.0721,1.0721,1.0721,1.0721,1.0721,1.0721,1.0721,1.0721,1.0721,1.0721,1.0721,1.0721,1.0731,1.0853,1.0951,1.0958,1.1077,1.1063,1.0778,1.087,1.0958,1.0958,1.108,1.1107,1.0972,1.0958,1.0894,1.0741,1.0731,1.0727,1.0721,1.0721,1.0721,1.0721,1.0721,1.0721,1.0721,1.0721,1.0721,1.0721,1.0721,1.0721,1.4843,1.5284,1.5645,1.5792,1.5832,1.5832,1.5832,1.5832,1.5705,1.5277,1.5124,1.4963,1.4596,1.5064,1.5605,1.5899,1.662,1.7228,1.7442,1.7535,1.7669,1.7903,1.7996,1.825,1.8764,1.8878,0.0,0.0,1.9325,1.9366,1.9366,1.9639,1.99,2.0114,2.0408,2.0702,2.0995,2.0995,2.1036,2.1109,2.1109,2.1109,2.1109,2.1109,2.1109,2.1109,2.1109,2.1109,2.1109,2.1109,2.0849,2.0456,2.0456,1.8634,1.5913,1.5394,1.3582,1.124,1.085,1.0721,1.0721,1.0721,1.0721,1.0721,1.0721,1.0721,1.0721,1.0721,1.0721,1.0721,1.0721,1.0721,1.0721,1.0721,1.0721,1.0721,1.0721,1.0721,1.0721,1.0721,1.0721,1.0758,1.087,1.0921,1.0985,1.109,1.1138,1.1134,1.106,1.1084,1.1107,1.1107,1.1141,1.1148,1.1111,1.1107,1.1046,1.09,1.089,1.0839,1.0724,1.0721,1.0721,1.0721,1.0721,1.0721,1.0721,1.0721,1.0721,1.0721,1.0721,1.0721,1.5231,1.5578,1.5832,1.5832,1.5832,1.5765,1.5504,1.5451,1.5244,1.4529,1.4382,1.4249,1.3788,1.4629,1.5451,1.5611,1.6593,1.7395,1.7562,1.7702,1.7849,1.8009,1.827,1.8564,1.8891,1.9038,1.9185,0.0,1.9366,1.9419,1.9553,1.9833,2.0127,2.0421,2.0715,2.0942,2.1109,2.1109,2.1109,2.1109,2.1109,2.1109,2.1109,2.1109,2.1109,2.1109,0.0,2.1109,2.1109,2.1109,2.1109,2.0982,2.0202,1.8768,1.6824,1.5269,1.3582,1.1762,1.0982,1.0721,1.0721,1.0721,1.0721,1.0721,1.0721,1.0721,1.0721,1.0721,1.0721,1.0721,1.0721,1.0721,1.0721,1.0721,1.0721,1.0721,1.0721,1.0721,1.0721,1.0721,1.0721,1.0768,1.0921,1.0999,1.1094,1.1243,1.1321,1.1362,1.1362,1.1304,1.1263,1.1263,1.1321,1.1338,1.1267,1.1263,1.1199,1.1053,1.1043,1.0975,1.0826,1.0819,1.0789,1.0721,1.0721,1.0721,1.0721,1.0721,1.0721,1.0721,1.0721,1.0721,1.5691,1.5832,1.5832,1.5832,1.5832,1.5678,1.5097,1.4937,1.4643,1.3714,1.3494,1.3373,1.3086,1.4202,1.5204,1.5317,1.654,1.7508,1.7629,1.7876,1.807,1.813,1.8604,1.8938,1.8978,1.9219,1.9379,1.9419,1.9426,1.9533,1.9786,2.0114,2.0428,2.0722,2.0982,2.1109,2.1109,2.1109,2.1109,2.1109,2.1109,2.1109,2.1109,2.1109,2.1109,2.1109,0.0,0.0,2.1109,2.1109,2.1109,2.0976,1.9158,1.8378,1.7731,1.4488,1.3193,1.2804,1.124,1.0721,1.0721,1.0721,1.0721,1.0721,1.0721,1.0721,1.0721,1.0721,1.0721,1.0721,1.0721,1.0721,1.0721,1.0721,1.0721,1.0721,1.0721,1.0721,1.0721,1.0721,1.0734,1.0799,1.0951,1.1097,1.1246,1.1399,1.1535,1.1619,1.1619,1.1504,1.1419,1.1419,1.1541,1.1565,1.1433,1.1419,1.1355,1.1202,1.1192,1.1128,1.0982,1.0978,1.0904,1.0755,1.0751,1.0741,1.0721,1.0721,1.0721,1.0721,1.0721,1.0721,1.5798,1.5832,1.5832,1.5832,1.5832,1.5678,1.5097,1.4776,1.4275,1.314,1.2705,1.2445,1.2158,1.3113,1.4188,1.4917,1.6066,1.7114,1.7862,1.8009,1.8223,1.8711,1.8858,1.9018,1.9265,1.9339,1.9466,0.0,1.9726,1.9746,1.98,2.0307,2.0735,2.1029,2.1082,2.1109,2.1109,2.1109,2.1109,2.1109,2.1109,2.1109,2.1109,2.1109,2.1109,2.1109,2.1109,0.0,2.1109,2.1109,2.1109,2.0976,1.9158,1.7602,1.6048,1.4101,1.2413,1.1111,1.085,1.0721,1.0721,1.0721,1.0721,1.0721,1.0721,1.0721,1.0721,1.0721,1.0721,1.0721,1.0721,1.0721,1.0721,1.0721,1.0721,1.0721,1.0721,1.0721,1.0721,1.0721,1.0822,1.0955,1.1101,1.1253,1.1402,1.1555,1.1603,1.1619,1.1619,1.1596,1.1579,1.1579,1.1603,1.1609,1.1582,1.1579,1.1514,1.1362,1.1352,1.1284,1.1131,1.1124,1.1056,1.0911,1.0907,1.0846,1.0721,1.0721,1.0721,1.0721,1.0721,1.0721,1.5832,1.5832,1.5832,1.5832,1.5832,1.5558,1.4516,1.4168,1.3641,1.2138,1.1844,1.1757,1.147,1.2512,1.3661,1.4389,1.5618,1.6794,1.7682,1.8076,1.8437,1.8871,1.9058,1.9212,1.9352,1.9506,1.9646,1.9786,2.0087,2.0254,2.0254,2.0668,2.0962,2.1109,2.1109,2.1109,2.1109,2.1109,2.1109,2.1109,2.1109,2.1109,2.1109,2.1109,2.1109,2.1109,2.1109,0.0,2.1109,2.1109,2.1109,2.0976,1.9158,1.7468,1.5659,1.397,1.2153,1.0721,1.0721,1.0721,1.0721,1.0721,1.0721,1.0721,1.0721,1.0721,1.0721,1.0721,1.0721,1.0721,1.0721,1.0721,1.0721,1.0721,1.0721,1.0721,1.0721,1.0721,1.0721,1.0721,1.0843,1.0995,1.1138,1.129,1.1443,1.1596,1.1619,1.1619,1.1619,1.1619,1.1619,1.1619,1.1619,1.1619,1.1619,1.1619,1.1589,1.1514,1.1511,1.1443,1.1287,1.128,1.1212,1.1063,1.106,1.1023,1.0951,1.0877,1.0839,1.0836,1.0758,1.0721,1.5832,1.5832,1.5832,1.5832,1.5832,1.5444,1.3981,1.3594,1.3066,1.1343,1.1129,1.1209,1.1102,1.2091,1.32,1.4041,1.5197,1.6386,1.7522,1.809,1.8551,1.8971,1.9225,1.9366,1.9366,1.9633,1.9826,1.9887,0.0,0.0,2.0768,2.0989,2.1109,2.1109,2.1109,2.1109,2.1109,2.1109,2.1109,2.1109,2.1109,2.1109,2.1109,2.1109,2.1109,2.1109,2.1109,0.0,0.0,2.1109,2.1109,2.0976,1.9158,1.7602,1.6172,1.4101,1.2413,1.124,1.085,1.0721,1.0721,1.0721,1.0721,1.0721,1.0721,1.0721,1.0721,1.0721,1.0721,1.0721,1.0721,1.0721,1.0721,1.0721,1.0721,1.0721,1.0721,1.0721,1.0721,1.0721,1.0867,1.1029,1.1141,1.1318,1.148,1.1603,1.1619,1.1619,1.1619,1.1619,1.1619,1.1619,1.1619,1.1619,1.1619,1.1619,1.1619,1.1619,1.1619,1.1565,1.1447,1.144,1.1369,1.1216,1.1212,1.1196,1.1162,1.105,1.0978,1.0948,1.0856,1.0782,1.5832,1.5832,1.5832,1.5832,1.5832,1.5444,1.3981,1.344,1.2819,1.1303,1.0808,1.0788,1.1289,1.1717,1.2538,1.4208,1.4816,1.5772,1.7729,1.805,1.8397,1.9225,1.9352,1.9366,1.9366,1.9633,1.9907,2.0174,0.0,0.0,2.1069,2.1096,2.1109,2.1109,2.1109,2.1109,2.1109,2.1109,2.1109,2.1109,2.1109,2.1109,2.1109,2.1109,2.1109,2.1109,2.1109,0.0,0.0,2.1109,2.1109,2.0976,1.9158,1.8378,1.7859,1.4488,1.3193,1.2804,1.124,1.0721,1.0721,1.0721,1.0721,1.0721,1.0721,1.0721,1.0721,1.0721,1.0721,1.0721,1.0721,1.0721,1.0721,1.0721,1.0721,1.0721,1.0721,1.0721,1.0721,1.0721,1.0948,1.1148,1.1162,1.1406,1.1603,1.1616,1.1619,1.1619,1.1619,1.1619,1.1619,1.1619,1.1619,1.1619,1.1619,1.1619,1.1619,1.1619,1.1619,1.1613,1.1599,1.1599,1.1528,1.1372,1.1369,1.1301,1.1162,1.1151,1.1077,1.0951,1.1067,1.0975,1.5785,1.5832,1.5832,1.5832,1.5698,1.5184,1.3714,1.3146,1.2512,1.1035,1.0641,1.0735,1.1316,1.1383,1.1924,1.3701,1.4088,1.4763,1.6473,1.7014,1.7569,1.8464,1.8731,1.9045,1.9579,1.9887,2.0254,2.0728,0.0,0.0,2.1109,2.1109,2.1109,2.1109,2.1109,2.1109,2.1109,2.1109,2.1109,2.1109,2.1109,2.1109,2.1109,2.1109,2.1109,2.1109,2.1109,0.0,0.0,2.1109,2.1109,2.0982,2.0329,1.8768,1.6824,1.5399,1.3582,1.1633,1.0982,1.0721,1.0721,1.0721,1.0721,1.0721,1.0721,1.0721,1.0721,1.0721,1.0721,1.0721,1.0721,1.0721,1.0721,1.0721,1.0721,1.0721,1.0721,1.0721,1.0748,1.0839,1.1023,1.1192,1.1284,1.1477,1.1619,1.1619,1.1619,1.1619,1.1619,1.1619,1.1619,1.1619,1.1619,1.1619,1.1619,1.1619,1.1619,1.1619,1.1619,1.1619,1.1619,1.1619,1.1592,1.1531,1.1528,1.1497,1.1436,1.1345,1.127,1.1212,1.1179,1.1101,1.5732,1.5832,1.5832,1.5832,1.5611,1.501,1.3547,1.2973,1.2405,1.0927,1.0624,1.0715,1.1209,1.1202,1.1643,1.3253,1.3587,1.4188,1.5745,1.6313,1.6907,1.7802,1.8176,1.8671,1.9466,2.004,2.0568,0.0,0.0,0.0,0.0,2.1109,2.1109,2.1109,2.1109,2.1109,2.1109,2.1109,2.1109,2.1109,2.1109,2.1109,2.1109,2.1109,2.1109,2.1109,0.0,0.0,0.0,2.1109,2.1109,2.1109,2.1109,1.9546,1.7339,1.6302,1.4362,1.2153,1.1111,1.0721,1.0721,1.0721,1.0721,1.0721,1.0721,1.0721,1.0721,1.0721,1.0721,1.0721,1.0721,1.0721,1.0721,1.0721,1.0721,1.0721,1.0721,1.0721,1.0765,1.0917,1.1063,1.1212,1.1365,1.1518,1.1619,1.1619,1.1619,1.1619,1.1619,1.1619,1.1619,1.1619,1.1619,1.1619,1.1619,1.1619,1.1619,1.1619,1.1619,1.1619,1.1619,1.1619,1.1619,1.1619,1.1619,1.1619,1.1619,1.1511,1.1436,1.1389,1.1324,1.1274,1.5671,1.5832,1.5832,1.5832,1.5611,1.501,1.3547,1.2973,1.2405,1.0927,1.0624,1.0648,1.0942,1.1229,1.1817,1.3019,1.3454,1.4255,1.6019,1.6273,1.6607,1.7482,1.7862,1.8283,1.8878,1.9987,2.0795,0.0,0.0,0.0,0.0,2.1109,2.1109,2.1109,2.1109,2.1109,2.1109,2.1109,2.1109,2.1109,2.1109,2.1109,2.1109,2.1109,2.1109,0.0,0.0,0.0,0.0,2.1109,2.1109,2.1109,2.1109,2.1109,2.0589,1.7211,1.5918,1.5399,1.1894,1.0721,1.0721,1.0721,1.0721,1.0721,1.0721,1.0721,1.0721,1.0721,1.0721,1.0721,1.0721,1.0721,1.0721,1.0721,1.0721,1.0721,1.0721,1.0721,1.0765,1.0917,1.1063,1.1212,1.1365,1.1518,1.1619,1.1619,1.1619,1.1619,1.1619,1.1619,1.1619,1.1619,1.1619,1.1619,1.1619,1.1619,1.1619,1.1619,1.1619,1.1619,1.1619,1.1619,1.1619,1.1619,1.1619,1.1619,1.1619,1.1616,1.1538,1.1396,1.1545,1.1535,1.483,1.5084,1.5144,1.4736,1.4416,1.3915,1.2839,1.2358,1.1844,1.0846,1.0624,1.0648,1.0942,1.0909,1.1423,1.3213,1.3414,1.3895,1.5458,1.6192,1.6747,1.7228,1.8617,1.9693,2.0087,0.0,0.0,0.0,0.0,0.0,0.0,2.1109,2.1109,2.1109,2.1109,2.1109,2.1109,2.1109,2.1109,2.1109,2.1109,2.1109,2.1109,2.1109,0.0,0.0,0.0,0.0,0.0,2.1109,2.1109,2.1109,2.1109,2.0329,1.9024,1.6695,1.5139,1.3844,1.1505,1.0721,1.0721,1.0721,1.0721,1.0721,1.0721,1.0721,1.0721,1.0721,1.0721,1.0721,1.0721,1.0721,1.0721,1.0721,1.0721,1.0721,1.0721,1.0721,1.0795,1.1046,1.1131,1.1246,1.1504,1.1589,1.1619,1.1619,1.1619,1.1619,1.1619,1.1619,1.1619,1.1619,1.1619,1.1619,1.1619,1.1619,1.1619,1.1619,1.1619,1.1619,1.1619,1.1619,1.1619,1.1619,1.1619,1.1619,1.1619,1.1619,1.1596,1.1548,1.1596,1.1592,1.3988,1.4409,1.4543,1.4175,1.3781,1.3273,1.2485,1.1991,1.1483,1.0722,1.0624,1.0678,1.0795,1.0775,1.1216,1.2732,1.3106,1.3721,1.519,1.6059,1.682,1.7569,1.9085,2.0187,0.0,2.0875,0.0,0.0,0.0,0.0,0.0,2.1109,2.1109,2.1109,2.1109,2.1109,2.1109,2.1109,2.1109,2.1109,2.1109,2.1109,2.1109,2.1109,0.0,0.0,0.0,0.0,0.0,2.1109,2.1109,2.1109,2.1109,2.0456,1.9158,1.6824,1.5265,1.397,1.1501,1.0721,1.0721,1.0721,1.0721,1.0721,1.0721,1.0721,1.0721,1.0721,1.0721,1.0721,1.0721,1.0721,1.0721,1.0721,1.0721,1.0721,1.0721,1.0721,1.0792,1.1036,1.1124,1.1243,1.1491,1.1582,1.1619,1.1619,1.1619,1.1619,1.1619,1.1619,1.1619,1.1619,1.1619,1.1619,1.1619,1.1619,1.1619,1.1619,1.1619,1.1619,1.1619,1.1619,1.1619,1.1619,1.1619,1.1619,1.1619,1.1619,1.1619,1.1619,1.1619,1.1589,0.0,1.3667,1.3948,1.3908,1.3487,1.2933,1.2345,1.1784,0.0,1.0739,1.0624,1.0645,1.0705,1.0835,1.1229,1.1944,1.2739,1.3794,1.5277,1.6052,1.6994,1.8444,1.9352,1.998,2.0267,0.0,0.0,0.0,0.0,0.0,0.0,2.1109,2.1109,2.1109,2.1109,2.1109,2.1109,2.1109,2.1109,2.1109,2.1109,2.1109,2.1109,2.1109,0.0,0.0,0.0,0.0,0.0,2.1109,2.1109,2.1109,2.1109,2.1109,2.0716,1.7339,1.6043,1.5399,1.2022,1.085,1.0721,1.0721,1.0721,1.0721,1.0721,1.0721,1.0721,1.0721,1.0721,1.0721,1.0721,1.0721,1.0721,1.0721,1.0721,1.0721,1.0721,1.0721,1.0765,1.0917,1.1063,1.1212,1.1365,1.1518,1.1619,1.1619,1.1619,1.1619,1.1619,1.1619,1.1619,1.1619,1.1619,1.1619,1.1619,1.1619,1.1619,1.1619,1.1619,1.1619,1.1619,1.1619,1.1619,1.1619,1.1619,1.1619,1.1619,1.1619,1.1619,1.1619,1.1609,1.1528,1.0848,0.0,1.2612,1.2164,1.1944,1.175,0.0,1.1196,1.0995,1.0698,1.0624,1.0826,1.1436,1.1249,1.163,1.3581,1.3888,1.4476,1.6159,1.7495,1.8677,1.97,2.0207,2.0581,2.0875,0.0,0.0,0.0,0.0,2.1109,0.0,2.1109,2.1109,2.1109,2.1109,2.1109,2.1109,2.1109,2.1109,2.1109,2.1109,2.1109,2.1109,2.1109,0.0,0.0,0.0,0.0,2.1109,2.1109,2.1109,2.1109,2.1109,2.1109,2.0849,1.864,1.7082,1.5524,1.3451,1.1762,1.0721,1.0721,1.0721,1.0721,1.0721,1.0721,1.0721,1.0721,1.0721,1.0721,1.0721,1.0721,1.0721,1.0721,1.0721,1.0721,1.0721,1.0721,1.0765,1.0917,1.1063,1.1212,1.1365,1.1518,1.1619,1.1619,1.1619,1.1619,1.1619,1.1619,1.1619,1.1619,1.1619,1.1619,1.1619,1.1619,1.1619,1.1619,1.1619,1.1619,1.1619,1.1619,1.1619,1.1619,1.1619,1.1619,1.1619,1.1619,1.1619,1.1616,1.1501,1.1426,0.988,1.0989,1.2024,1.171,1.163,1.159,1.143,1.1082,1.0755,1.0658,1.0624,1.0813,1.1356,1.1643,1.2218,1.35,1.4482,1.5658,1.7295,1.8564,1.9553,2.016,2.0615,2.0935,0.0,0.0,0.0,0.0,0.0,2.1109,0.0,2.1109,2.1109,2.1109,2.1109,2.1109,2.1109,2.1109,2.1109,2.1109,2.1109,2.1109,2.1109,2.1109,2.1109,0.0,0.0,0.0,2.1109,2.1109,2.1109,2.1109,2.1109,2.1109,2.0849,1.9158,1.7339,1.5659,1.384,1.2153,1.0721,1.0721,1.0721,1.0721,1.0721,1.0721,1.0721,1.0721,1.0721,1.0721,1.0721,1.0721,1.0721,1.0721,1.0721,1.0721,1.0721,1.0721,1.0744,1.0826,1.1016,1.1189,1.127,1.147,1.1619,1.1619,1.1619,1.1619,1.1619,1.1619,1.1619,1.1619,1.1619,1.1619,1.1619,1.1619,1.1619,1.1619,1.1619,1.1619,1.1619,1.1619,1.1619,1.1619,1.1619,1.1619,1.1619,1.1619,1.1582,1.1511,1.143,1.1324,0.9699,1.0822,1.1824,1.1643,1.1703,1.1777,1.169,1.1162,1.0631,1.0678,1.0692,1.0808,1.1416,1.2198,1.2956,1.3366,1.5104,1.6961,1.8357,1.9312,1.9973,2.0267,2.0782,0.0,0.0,0.0,0.0,0.0,0.0,0.0,0.0,2.1109,2.1109,2.1109,2.1109,2.1109,2.1109,2.1109,2.1109,2.1109,2.1109,2.1109,2.1109,2.1109,2.1109,0.0,0.0,0.0,2.1109,2.1109,2.1109,2.1109,2.1109,2.1109,2.0976,1.9419,1.7602,1.5659,1.3582,1.1894,1.0721,1.0721,1.0721,1.0721,1.0721,1.0721,1.0721,1.0721,1.0721,1.0721,1.0721,1.0721,1.0721,1.0721,1.0721,1.0721,1.0721,1.0721,1.0721,1.0721,1.0958,1.1162,1.1162,1.1416,1.1619,1.1619,1.1619,1.1619,1.1619,1.1619,1.1619,1.1619,1.1619,1.1619,1.1619,1.1619,1.1619,1.1619,1.1619,1.1619,1.1619,1.1619,1.1619,1.1619,1.1619,1.1619,1.1619,1.1596,1.1518,1.1389,1.1345,1.1202,1.014,1.1196,1.163,1.0635,1.0942,1.1363,1.0875,1.0725,1.0628,1.0875,1.0929,1.1557,1.3601,1.33,1.348,1.5732,1.682,1.7729,1.8718,1.9613,2.0274,2.0575,0.0,0.0,0.0,0.0,0.0,0.0,0.0,0.0,0.0,2.1109,2.1109,2.1109,2.1109,2.1109,2.1109,2.1109,2.1109,2.1109,2.1109,2.1109,2.1109,2.1109,2.1109,0.0,0.0,2.1109,2.1109,2.1109,2.1109,2.1109,2.1109,2.1109,2.1109,2.0849,1.864,1.5394,1.2285,1.0982,1.0721,1.0721,1.0721,1.0721,1.0721,1.0721,1.0721,1.0721,1.0721,1.0721,1.0721,1.0721,1.0721,1.0721,1.0721,1.0721,1.0721,1.0721,1.0721,1.0721,1.0958,1.1162,1.1162,1.1416,1.1619,1.1619,1.1619,1.1619,1.1619,1.1619,1.1619,1.1619,1.1619,1.1619,1.1619,1.1619,1.1619,1.1619,1.1619,1.1619,1.1619,1.1619,1.1619,1.1619,1.1619,1.1619,1.1619,1.1491,1.1413,1.1385,1.1131,1.1006,0.9466,1.0374,1.1069,1.0688,1.185,1.3026,1.2759,1.2579,1.2412,1.2231,1.2318,1.2806,1.4055,1.4482,1.5418,1.7762,1.7969,1.8196,1.9252,1.9746,2.0167,0.0,0.0,0.0,0.0,0.0,0.0,0.0,0.0,0.0,0.0,0.0,2.1109,2.1109,2.1109,2.1109,2.1109,2.1109,2.1109,2.1109,2.1109,2.1109,2.1109,2.1109,2.1109,2.1109,0.0,2.1109,2.1109,2.1109,2.1109,2.1109,2.1109,2.1109,2.0849,1.9024,1.7339,1.5394,1.1894,1.0721,1.0721,1.0721,1.0721,1.0721,1.0721,1.0721,1.0721,1.0721,1.0721,1.0721,1.0721,1.0721,1.0721,1.0721,1.0721,1.0721,1.0721,1.0721,1.0721,1.0721,1.0897,1.1046,1.1046,1.1297,1.1497,1.1497,1.1565,1.1619,1.1619,1.1619,1.1619,1.1619,1.1619,1.1619,1.1619,1.1619,1.1619,1.1619,1.1619,1.1619,1.1619,1.1619,1.1619,1.1619,1.1619,1.1579,1.1497,1.1426,1.1307,1.1148,1.1012,1.0928,0.9245,0.9973,1.0782,1.1276,1.2665,1.3968,1.4249,1.4035,1.3721,1.3554,1.3694,1.4001,1.4509,1.5745,1.7188,1.8704,1.8617,1.8718,1.9753,1.996,2.0201,0.0,0.0,0.0,0.0,0.0,0.0,0.0,0.0,0.0,0.0,0.0,2.1109,2.1109,2.1109,2.1109,2.1109,2.1109,2.1109,2.1109,2.1109,2.1109,2.1109,2.1109,2.1109,2.1109,2.1109,2.1109,2.1109,2.1109,2.1109,2.1109,2.1109,2.1109,2.0716,1.7211,1.5913,1.5394,1.1894,1.0721,1.0721,1.0721,1.0721,1.0721,1.0721,1.0721,1.0721,1.0721,1.0721,1.0721,1.0721,1.0721,1.0721,1.0721,1.0721,1.0721,1.0721,1.0721,1.0721,1.0721,1.0843,1.0948,1.0948,1.1196,1.1392,1.1392,1.1521,1.1619,1.1619,1.1619,1.1619,1.1619,1.1619,1.1619,1.1619,1.1619,1.1619,1.1619,1.1619,1.1619,1.1619,1.1619,1.1603,1.1565,1.1603,1.1528,1.1338,1.1338,1.1202,1.0948,1.0917,1.0735,1.0541,1.0902,1.1229,1.2412,1.2412,1.2345,1.3454,1.3253,1.3146,1.4208,1.4442,1.4796,1.5912,1.7108,1.7876,1.7736,1.8591,1.9486,2.0114,0.0,0.0,0.0,0.0,0.0,0.0,0.0,0.0,0.0,0.0,0.0,0.0,0.0,0.0,2.1109,2.1109,2.1109,2.1109,2.1109,2.1109,2.1109,2.1109,2.1109,2.1109,2.1109,2.1109,2.1109,2.1109,2.1109,2.1109,2.1109,2.1109,2.1109,2.1109,2.1109,2.0716,1.7211,1.5913,1.5394,1.1894,1.0721,1.0721,1.0721,1.0721,1.0721,1.0721,1.0721,1.0721,1.0721,1.0721,1.0721,1.0721,1.0721,1.0721,1.0721,1.0721,1.0721,1.0721,1.0721,1.0721,1.0721,1.0843,1.0948,1.0948,1.1196,1.1392,1.1392,1.1521,1.1619,1.1619,1.1619,1.1619,1.1619,1.1619,1.1619,1.1619,1.1619,1.1619,1.1619,1.1619,1.1619,1.1619,1.1619,1.1552,1.1409,1.1548,1.1474,1.1179,1.1179,1.1101,1.0945,1.0826,1.0648,0.978,1.0568,1.1416,1.2044,1.2726,1.3507,1.4509,1.4983,1.5337,1.5785,1.6172,1.656,1.7001,1.8063,1.8711,1.8223,1.8985,1.9773,2.0174,0.0,0.0,0.0,0.0,0.0,0.0,0.0,0.0,0.0,0.0,0.0,0.0,0.0,0.0,2.1109,2.1109,2.1109,2.1109,2.1109,2.1109,2.1109,2.1109,2.1109,2.1109,2.1109,2.1109,2.1109,2.1109,2.1109,2.1109,2.1109,2.1109,2.1109,2.1109,2.1109,2.0849,1.8378,1.6824,1.5524,1.3193,1.1633,1.0721,1.0721,1.0721,1.0721,1.0721,1.0721,1.0721,1.0721,1.0721,1.0721,1.0721,1.0721,1.0721,1.0721,1.0721,1.0721,1.0721,1.0721,1.0721,1.0721,1.0768,1.0806,1.0806,1.1053,1.125,1.125,1.146,1.1619,1.1619,1.1619,1.1619,1.1619,1.1619,1.1619,1.1619,1.1619,1.1579,1.1484,1.1565,1.1619,1.1619,1.1619,1.1548,1.1396,1.1447,1.1328,1.1029,1.1029,1.0958,1.0826,1.0778,1.0645,0.982,1.0595,1.1563,1.2144,1.306,1.4115,1.5271,1.5999,1.6533,1.6907,1.7154,1.7395,1.7675,1.8317,1.8764,1.8644,1.9366,2.004,0.0,0.0,0.0,0.0,0.0,0.0,0.0,0.0,0.0,0.0,0.0,0.0,0.0,0.0,0.0,0.0,2.1109,2.1109,2.1109,2.1109,2.1109,2.1109,2.1109,2.1109,2.1109,2.1109,2.1109,2.1109,2.1109,2.1109,2.1109,2.1109,2.1109,2.1109,2.1109,2.1109,2.0849,1.8506,1.6947,1.5524,1.3325,1.1765,1.0721,1.0721,1.0721,1.0721,1.0721,1.0721,1.0721,1.0721,1.0721,1.0721,1.0721,1.0721,1.0721,1.0721,1.0721,1.0721,1.0721,1.0721,1.0721,1.0721,1.0721,1.0721,1.0721,1.0928,1.1094,1.1094,1.1311,1.1494,1.1541,1.1548,1.1565,1.1613,1.1619,1.1619,1.1619,1.1619,1.1555,1.1402,1.1491,1.1528,1.1477,1.1521,1.1453,1.1253,1.1297,1.1172,1.0877,1.0934,1.089,1.0755,1.0638,1.0668,1.1056,1.1209,1.173,1.2913,1.3227,1.3701,1.5438,1.5838,1.6172,1.7348,1.7128,1.7001,1.7889,1.7802,1.7889,1.8778,1.9659,2.0334,0.0,0.0,0.0,0.0,0.0,0.0,0.0,0.0,0.0,0.0,0.0,0.0,0.0,0.0,0.0,0.0,2.1109,2.1109,2.1109,2.1109,2.1109,2.1109,2.1109,2.1109,2.1109,2.1109,2.1109,2.1109,2.1109,2.1109,2.1109,2.1109,2.1109,2.1109,2.1109,2.1109,2.0716,1.7211,1.5913,1.5394,1.189,1.0721,1.0721,1.0721,1.0721,1.0721,1.0721,1.0721,1.0721,1.0721,1.0721,1.0721,1.0721,1.0721,1.0721,1.0721,1.0721,1.0721,1.0721,1.0721,1.0721,1.0721,1.0721,1.0721,1.0721,1.0846,1.0948,1.0948,1.107,1.1216,1.1369,1.1389,1.1447,1.1599,1.1616,1.1616,1.1616,1.1616,1.1552,1.1396,1.1389,1.1321,1.1168,1.1307,1.125,1.0955,1.1087,1.1016,1.0721,1.0897,1.0904,1.0755,1.0682,1.0705,1.0154,1.1349,1.2712,1.2852,1.4449,1.6059,1.6373,1.6446,1.678,1.7976,1.8243,1.8283,1.8343,1.8624,0.0,1.8911,1.9659,0.0,0.0,0.0,0.0,0.0,0.0,0.0,0.0,0.0,0.0,0.0,0.0,0.0,0.0,0.0,0.0,0.0,2.1109,2.1109,2.1109,2.1109,2.1109,2.1109,2.1109,2.1109,2.1109,2.1109,2.1109,2.1109,2.1109,2.1109,2.1109,2.1109,2.1109,2.1109,2.1109,2.1109,2.0976,1.9935,1.7988,1.5784,1.4749,1.2804,1.0721,1.0721,1.0721,1.0721,1.0721,1.0721,1.0721,1.0721,1.0721,1.0721,1.0721,1.0721,1.0721,1.0721,1.0721,1.0721,1.0721,1.0721,1.0721,1.0721,1.0721,1.0721,1.0721,1.0846,1.0948,1.0948,1.107,1.1179,1.1223,1.1229,1.1246,1.1294,1.1365,1.1379,1.1304,1.1365,1.1314,1.1094,1.1175,1.1209,1.1165,1.1206,1.1141,1.0951,1.0989,1.0924,1.0744,1.0799,1.0819,1.0682,1.0699,0.7968,1.1523,1.2732,1.4001,1.4396,1.5565,1.6734,1.7148,1.7241,1.7475,1.8317,1.8537,1.8631,1.8811,1.9032,0.0,0.0,0.0,0.0,0.0,0.0,0.0,0.0,0.0,0.0,0.0,0.0,0.0,0.0,0.0,0.0,0.0,0.0,0.0,0.0,2.1109,2.1109,2.1109,2.1109,2.1109,2.1109,2.1109,2.1109,2.1109,2.1109,2.1109,2.1109,2.1109,2.1109,2.1109,2.1109,2.1109,2.1109,2.1109,2.1109,2.0982,2.0329,1.8768,1.6695,1.5399,1.3451,1.1633,1.0982,1.0721,1.0721,1.0721,1.0721,1.0721,1.0721,1.0721,1.0721,1.0721,1.0721,1.0721,1.0721,1.0721,1.0721,1.0721,1.0721,1.0721,1.0721,1.0721,1.0721,1.0721,1.0799,1.0856,1.0856,1.0982,1.1077,1.1077,1.1128,1.1179,1.1219,1.128,1.1277,1.1172,1.1219,1.1179,1.0989,1.1056,1.107,1.0992,1.1046,1.1009,1.086,1.0867,1.0833,1.0755,1.0642,1.0672,1.0568,0.7828,0.4174,1.3941,1.4589,1.5297,1.668,1.6506,1.6346,1.7729,1.807,1.817,1.847,1.8337,1.8417,1.9219,1.9165,1.9272,0.0,0.0,0.0,0.0,0.0,0.0,0.0,0.0,0.0,0.0,0.0,0.0,0.0,0.0,0.0,0.0,0.0,0.0,2.1109,2.1109,2.1109,2.1109,2.1109,2.1109,0.0,2.1109,2.1109,2.1109,2.1109,2.1109,2.1109,2.1109,2.1109,2.1109,2.1109,2.1109,2.1109,2.1109,2.1109,2.0849,1.9285,1.8634,1.7988,1.4749,1.3451,1.3062,1.124,1.0721,1.0721,1.0721,1.0721,1.0721,1.0721,1.0721,1.0721,1.0721,1.0721,1.0721,1.0721,1.0721,1.0721,1.0721,1.0721,1.0721,1.0721,1.0721,1.0721,1.0721,1.0721,1.0721,1.0721,1.0836,1.0928,1.0928,1.1043,1.1158,1.1253,1.1263,1.1226,1.1131,1.1121,1.1084,1.0999,1.0992,1.0911,1.0727,1.0853,1.0863,1.0724,1.0744,1.0758,1.0761,1.0682,1.0296,0.9606,0.3096,0.0,1.2024,1.3494,1.515,1.5919,1.666,1.7355,1.7916,1.823,1.8477,1.8771,1.8965,1.9138,1.9332,1.9499,0.0,0.0,0.0,0.0,0.0,0.0,0.0,0.0,0.0,0.0,0.0,0.0,0.0,0.0,0.0,0.0,0.0,0.0,0.0,2.1109,2.1109,2.1109,2.1109,2.1109,2.1109,0.0,2.1109,2.1109,2.1109,2.1109,2.1109,2.1109,2.1109,2.1109,2.1109,2.1109,2.1109,2.1109,2.1109,2.1109,2.1109,2.0716,1.9674,1.8244,1.6043,1.4488,1.3062,1.124,1.0721,1.0721,1.0721,1.0721,1.0721,1.0721,1.0721,1.0721,1.0721,1.0721,1.0721,1.0721,1.0721,1.0721,1.0721,1.0721,1.0721,1.0721,1.0721,1.0721,1.0721,1.0721,1.0721,1.0721,1.0748,1.0768,1.0768,1.0795,1.0826,1.0846,1.085,1.0839,1.0819,1.0816,1.0806,1.0785,1.0785,1.0765,1.0721,1.0751,1.0761,1.0748,1.0761,1.0652,1.0689,1.0699,0.7831,0.2288,0.0673,0.0,1.2772,1.4122,1.5411,1.642,1.7128,1.7702,1.8156,1.8377,1.8617,1.9045,1.9259,1.9366,1.9366,0.0,0.0,0.0,0.0,0.0,0.0,0.0,0.0,0.0,0.0,0.0,0.0,0.0,0.0,0.0,0.0,0.0,0.0,2.1109,2.1109,2.1109,2.1109,2.1109,2.1109,2.1109,2.1109,2.1109,2.1109,2.1109,2.1109,2.1109,2.1109,2.1109,2.1109,2.1109,2.1109,2.1109,2.1109,2.1109,2.1109,2.1109,2.1109,2.1109,2.0456,1.9413,1.6824,1.5269,1.4101,1.1501,1.0721,1.0721,1.0721,1.0721,1.0721,1.0721,1.0721,1.0721,1.0721,1.0721,1.0721,1.0721,1.0721,1.0721,1.0721,1.0721,1.0721,1.0721,1.0721,1.0721,1.0721,1.0721,1.0721,1.0721,1.0721,1.0721,1.0721,1.0721,1.0721,1.0721,1.0721,1.0721,1.0721,1.0721,1.0721,1.0721,1.0721,1.0721,1.0721,1.0721,1.0724,1.0738,1.0642,1.0675,1.0695,0.7284,0.3635,0.0,0.0,0.0,1.3667,1.4823,1.5752,1.7215,1.7582,1.7742,1.835,1.849,1.8657,1.9245,1.9366,1.9366,0.0,0.0,0.0,0.0,0.0,0.0,0.0,0.0,0.0,0.0,0.0,0.0,0.0,0.0,0.0,0.0,0.0,0.0,2.1109,2.1109,2.1109,2.1109,2.1109,2.1109,2.1109,2.1109,2.1109,2.1109,2.1109,2.1109,2.1109,2.1109,2.1109,2.1109,2.1109,2.1109,2.1109,2.1109,2.1109,2.1109,2.1109,2.1109,2.1109,2.1109,2.1109,2.0589,1.7082,1.5913,1.5265,1.1894,1.0721,1.0721,1.0721,1.0721,1.0721,1.0721,1.0721,1.0721,1.0721,1.0721,1.0721,1.0721,1.0721,1.0721,1.0721,1.0721,1.0721,1.0721,1.0721,1.0721,1.0721,1.0721,1.0721,1.0721,1.0721,1.0721,1.0721,1.0721,1.0721,1.0721,1.0721,1.0721,1.0721,1.0721,1.0721,1.0721,1.0721,1.0721,1.0721,1.0738,1.0748,1.0748,0.9433,0.8909,0.8775,0.2959,0.0,0.0,0.0,0.0,1.1356,1.342,1.5752,1.7215,1.7582,1.7742,1.835,1.849,1.8657,0.0,1.9366,0.0,0.0,0.0,0.0,0.0,0.0,0.0,0.0,0.0,0.0,0.0,0.0,0.0,0.0,0.0,0.0,0.0,0.0,0.0,2.1109,2.1109,2.1109,2.1109,2.1109,2.1109,2.1109,2.1109,2.1109,2.1109,2.1109,2.1109,2.1109,2.1109,2.1109,2.1109,2.1109,2.1109,2.1109,2.1109,2.1109,2.1109,2.1109,2.1109,2.1109,2.1109,2.1109,2.0589,1.7082,1.5913,1.5265,1.1894,1.0721,1.0721,1.0721,1.0721,1.0721,1.0721,1.0721,1.0721,1.0721,1.0721,1.0721,1.0721,1.0721,1.0721,1.0721,1.0721,1.0721,1.0721,1.0721,1.0721,1.0721,1.0721,1.0721,1.0721,1.0721,1.0721,1.0721,1.0721,1.0721,1.0721,1.0721,1.0721,1.0721,1.0721,1.0721,1.0721,1.0721,1.0721,1.0721,1.0672,1.0719,1.0719,0.458,0.148,0.148,0.0404,0.0,0.0,0.0,0.0,1.1997,1.3908,1.5752,1.7215,1.7582,1.7742,1.835,1.849,1.8657,1.9245,1.9366,0.0,0.0,0.0,0.0,0.0,0.0,0.0,0.0,0.0,0.0,0.0,0.0,0.0,0.0,0.0,0.0,0.0,0.0,2.1109,2.1109,2.1109,2.1109,2.1109,2.1109,2.1109,2.1109,2.1109,2.1109,2.1109,2.1109,2.1109,2.1109,2.1109,2.1109,2.1109,2.1109,2.1109,2.1109,2.1109,2.1109,2.1109,2.1109,2.1109,2.1109,2.1109,2.1109,2.0589,1.7082,1.5913,1.5265,1.1894,1.0721,1.0721,1.0721,1.0721,1.0721,1.0721,1.0721,1.0721,1.0721,1.0721,1.0721,1.0721,1.0721,1.0721,1.0721,1.0721,1.0721,1.0721,1.0721,1.0721,1.0721,1.0721,1.0721,1.0721,1.0721,1.0721,1.0721,1.0721,1.0721,1.0721,1.0721,1.0721,1.0721,1.0721,1.0721,1.0721,1.0721,0.8839,0.4824,0.471,0.472,0.472,0.1616,0.0,0.0,0.0,0.0,0.0,0.0,0.0,1.2164,1.3661,1.4903,1.66,1.7194,1.7562,1.8317,1.8551,1.8744,0.0,0.0,0.0,0.0,0.0,0.0,0.0,0.0,0.0,0.0,0.0,0.0,0.0,0.0,0.0,0.0,0.0,0.0,0.0,0.0,2.1109,2.1109,2.1109,2.1109,2.1109,2.1109,2.1109,2.1109,2.1109,2.1109,2.1109,2.1109,2.1109,2.1109,2.1109,2.1109,2.1109,2.1109,2.1109,2.1109,2.1109,2.1109,2.1109,2.1109,2.1109,2.1109,2.1109,2.1109,2.0589,1.7082,1.5913,1.5265,1.1894,1.0721,1.0721,1.0721,1.0721,1.0721,1.0721,1.0721,1.0721,1.0721,1.0721,1.0721,1.0721,1.0721,1.0721,1.0721,1.0721,1.0721,1.0721,1.0721,1.0721,1.0721,1.0721,1.0721,1.0721,1.0721,1.0721,1.0721,1.0721,1.0721,1.0721,1.0721,1.0721,1.0721,1.0721,1.0721,1.0721,0.8972,0.5626,0.0269,0.0,0.0,0.0,0.0,0.0,0.0,0.0,0.0,0.0,0.0,0.0,1.0301,1.1438,1.2605,1.493,1.6132,1.7054,1.8223,1.8704,1.8991,1.9305,0.0,0.0,0.0,0.0,0.0,0.0,0.0,0.0,0.0,0.0,0.0,0.0,0.0,0.0,0.0,0.0,0.0,0.0,0.0,2.1109,2.1109,2.1109,2.1109,2.1109,2.1109,2.1109,2.1109,2.1109,2.1109,2.1109,2.1109,2.1109,2.1109,2.1109,2.1109,2.1109,2.1109,2.1109,2.1109,2.1109,2.1109,2.1109,2.1109,2.1109,2.1109,2.1109,2.1109,2.0589,1.7082,1.5913,1.5265,1.1894,1.0721,1.0721,1.0721,1.0721,1.0721,1.0721,1.0721,1.0721,1.0721,1.0721,1.0721,1.0721,1.0721,1.0721,1.0721,1.0721,1.0721,1.0721,1.0721,1.0721,1.0721,1.0721,1.0721,1.0721,1.0721,1.0721,1.0721,1.0721,1.0721,1.0721,1.0721,1.0721,1.0721,1.0721,1.0721,1.0721,0.4289,0.0404,0.0,0.0,0.0,0.0,0.0,0.0,0.0,0.0,0.0,0.0,0.0,0.0,1.0221,1.0929,1.1784,1.3774,1.5217,1.6353,1.7161,1.8163,1.9011,1.9305,0.0,0.0,0.0,0.0,0.0,0.0,0.0,0.0,0.0,0.0,0.0,0.0,0.0,0.0,0.0,0.0,0.0,0.0,0.0,0.0,2.1109,2.1109,2.1109,2.1109,2.1109,2.1109,2.1109,2.1109,2.1109,2.1109,2.1109,2.1109,2.1109,2.1109,2.1109,2.1109,2.1109,2.1109,2.1109,2.1109,2.1109,2.1109,2.1109,2.1109,2.1109,2.1109,2.1109,2.0589,1.7082,1.5913,1.5265,1.1894,1.0721,1.0721,1.0721,1.0721,1.0721,1.0721,1.0721,1.0721,1.0721,1.0721,1.0721,1.0721,1.0721,1.0721,1.0721,1.0721,1.0721,1.0721,1.0721,1.0721,1.0721,1.0721,1.0721,1.0721,1.0721,1.0721,1.0721,1.0721,1.0721,1.0721,1.0721,1.0721,1.0721,1.0721,1.0721,1.0721,0.4023,0.0,0.0,0.0,0.0,0.0,0.0,0.0,0.0,0.0,0.0,0.0,0.0,0.0,0.959,1.018,1.1002,1.2879,1.4075,1.5211,1.6794,1.7762,1.8524,1.9225,0.0,0.0,0.0,0.0,0.0,0.0,0.0,0.0,0.0,0.0,0.0,0.0,0.0,0.0,0.0,0.0,0.0,0.0,0.0,0.0,2.1109,2.1109,2.1109,2.1109,2.1109,2.1109,2.1109,2.1109,2.1109,2.1109,2.1109,2.1109,2.1109,2.1109,2.1109,2.1109,2.1109,2.1109,2.1109,2.1109,2.1109,2.1109,2.1109,2.1109,2.1109,2.1109,2.1109,2.0589,1.7082,1.5913,1.5265,1.1894,1.0721,1.0721,1.0721,1.0721,1.0721,1.0721,1.0721,1.0721,1.0721,1.0721,1.0721,1.0721,1.0721,1.0721,1.0721,1.0721,1.0721,1.0721,1.0721,1.0721,1.0721,1.0721,1.0721,1.0721,1.0721,1.0721,1.0721,1.0721,1.0721,1.0721,1.0721,1.0721,1.0721,1.0721,0.9646,0.7231,0.2684,0.0,0.0,0.0,0.0,0.0,0.0,0.0,0.0,0.0,0.0,0.0,0.0,0.0,0.0,0.0,0.0,1.2217,1.2755,1.3614,1.7088,1.7455,1.7488,1.8991,0.0,0.0,0.0,0.0,0.0,0.0,0.0,0.0,0.0,0.0,0.0,0.0,0.0,0.0,0.0,0.0,0.0,0.0,0.0,2.1109,2.1109,2.1109,2.1109,2.1109,2.1109,2.1109,2.1109,2.1109,2.1109,2.1109,2.1109,2.1109,2.1109,2.1109,2.1109,2.1109,2.1109,2.1109,2.1109,2.1109,2.1109,2.1109,2.1109,2.1109,2.1109,2.1109,2.1109,2.0589,1.7211,1.5913,1.5265,1.1894,1.0721,1.0721,1.0721,1.0721,1.0721,1.0721,1.0721,1.0721,1.0721,1.0721,1.0721,1.0721,1.0721,1.0721,1.0721,1.0721,1.0721,1.0721,1.0721,1.0721,1.0721,1.0721,1.0721,1.0721,1.0721,1.0721,1.0721,1.0721,1.0721,1.0721,1.0721,1.0721,1.0721,1.0452,0.7365,0.0404,0.0,0.0,0.0,0.0,0.0,0.0,0.0,0.0,0.0,0.0,0.0,0.0,0.0,0.0,0.9116,0.0,0.0,0.0,0.0,0.0,0.0,1.4436,1.5471,1.7368,0.0,0.0,0.0,0.0,0.0,0.0,0.0,0.0,0.0,0.0,0.0,0.0,0.0,0.0,0.0,0.0,0.0,0.0,2.1109,2.1109,2.1109,2.1109,2.1109,2.1109,2.1109,2.1109,2.1109,2.1109,2.1109,2.1109,2.1109,2.1109,2.1109,2.1109,2.1109,2.1109,2.1109,2.1109,2.1109,2.1109,2.1109,2.1109,2.1109,2.1109,2.1109,2.1109,2.1109,2.0722,1.8506,1.6953,1.5524,1.3325,1.1762,1.0721,1.0721,1.0721,1.0721,1.0721,1.0721,1.0721,1.0721,1.0721,1.0721,1.0721,1.0721,1.0721,1.0721,1.0721,1.0721,1.0721,1.0721,1.0721,1.0721,1.0721,1.0721,1.0721,1.0721,1.0721,1.0721,1.0721,1.0721,1.0721,1.0721,1.0721,1.0721,0.5893,0.2148,0.0135,0.0,0.0,0.0,0.0,0.0,0.0,0.0,0.0,0.0,0.0,0.0,0.0,0.0,0.0,1.0202,0.9881,0.9677,1.0312,0.0,0.0,0.0,0.0,0.0,0.0,0.0,0.0,0.0,0.0,0.0,0.0,0.0,0.0,0.0,0.0,0.0,0.0,0.0,0.0,0.0,0.0,0.0,2.1109,2.1109,2.1109,2.1109,2.1109,2.1109,2.1109,2.1109,2.1109,2.1109,2.1109,2.1109,2.1109,2.1109,2.1109,2.1109,2.1109,2.1109,2.1109,2.1109,2.1109,2.1109,2.1109,2.1109,2.1109,2.1109,2.1109,2.1109,2.1109,2.1109,2.0722,1.825,1.6695,1.5524,1.3066,1.1501,1.0721,1.0721,1.0721,1.0721,1.0721,1.0721,1.0721,1.0721,1.0721,1.0721,1.0721,1.0721,1.0721,1.0721,1.0721,1.0721,1.0721,1.0721,1.0721,1.0721,1.0721,1.0721,1.0721,1.0721,1.0721,1.0721,1.0721,1.0721,1.0721,1.0721,1.0721,1.0721,0.4155,0.0,0.0,0.0,0.0,0.0,0.0,0.0,0.0,0.0,0.0,0.0,0.0,0.0,0.0,0.0,0.0,1.1648,1.1242,1.0954,0.0,0.0,0.0,0.0,0.0,0.0,0.0,0.0,0.0,0.0,0.0,0.0,0.0,0.0,0.0,0.0,0.0,0.0,0.0,0.0,0.0,0.0,2.1109,2.1109,2.1109,2.1109,2.1109,2.1109,2.1109,2.1109,2.1109,2.1109,2.1109,2.1109,2.1109,2.1109,2.1109,2.1109,2.1109,2.1109,2.1109,2.1109,2.1109,2.1109,2.1109,2.1109,2.1109,2.1109,2.1109,2.1109,2.1109,2.1109,2.1109,2.0976,2.0329,1.7211,1.5913,1.5139,1.2022,1.085,1.0721,1.0721,1.0721,1.0721,1.0721,1.0721,1.0721,1.0721,1.0721,1.0721,1.0721,1.0721,1.0721,1.0721,1.0721,1.0721,1.0721,1.0721,1.0721,1.0721,1.0721,1.0721,1.0721,1.0721,1.0721,1.0721,1.0721,1.0721,1.0721,1.0721,1.0319,0.9643,0.3621,0.0,0.0,0.0,0.0,0.0,0.0,0.0,0.0,0.0,0.0,0.0,0.0,0.0,0.0,0.0,0.0,0.0,0.0,0.0,0.0,0.0,0.0,0.0,1.0762,1.149,0.0,1.3494,0.0,0.0,0.0,0.0,0.0,0.0,0.0,0.0,0.0,0.0,0.0,0.0,0.0,0.0,2.1109,2.1109,2.1109,2.1109,2.1109,2.1109,2.1109,2.1109,2.1109,2.1109,2.1109,2.1109,2.1109,2.1109,2.1109,2.1109,2.1109,2.1109,2.1109,2.1109,2.1109,2.1109,2.1109,2.1109,2.1109,2.1109,2.1109,2.1109,2.1109,2.1109,2.1109,2.0195,1.8896,1.8244,1.6172,1.3713,1.3062,1.1894,1.0721,1.0721,1.0721,1.0721,1.0721,1.0721,1.0721,1.0721,1.0721,1.0721,1.0721,1.0721,1.0721,1.0721,1.0721,1.0721,1.0721,1.0721,1.0721,1.0721,1.0721,1.0721,1.0721,1.0721,1.0721,1.0721,1.0721,1.0721,1.0721,1.0721,0.8302,0.255,0.0807,0.0,0.0,0.0,0.0,0.0,0.0,0.0,0.0,0.0,0.0,0.0,0.0,0.0,0.0,0.0,0.0,0.0,0.0,0.0,1.2164,0.0,0.0,0.0,0.0,1.1316,1.3233,1.328,1.338,0.0,0.0,0.0,0.0,0.0,0.0,0.0,0.0,0.0,0.0,0.0,0.0,0.0,2.1109,2.1109,2.1109,2.1109,2.1109,2.1109,2.1109,2.1109,2.1109,2.1109,2.1109,2.1109,2.1109,2.1109,2.1109,2.1109,2.1109,2.1109,2.1109,2.1109,2.1109,2.1109,2.1109,2.1109,2.1109,2.1109,2.1109,2.1109,2.1109,2.0982,2.0068,1.9285,1.825,1.6565,1.4749,1.3193,1.2281,1.1372,1.0721,1.0721,1.0721,1.0721,1.0721,1.0721,1.0721,1.0721,1.0721,1.0721,1.0721,1.0721,1.0721,1.0721,1.0721,1.0721,1.0721,1.0721,1.0721,1.0721,1.0721,1.0721,1.0721,1.0721,1.0721,1.0721,1.0721,1.0721,1.0721,1.0721,0.7767,0.0673,0.0,0.0,0.0,0.0,0.0,0.0,0.0,0.0,0.0,0.0,0.0,0.0,0.0,0.0,0.0,0.0,0.0,0.0,0.0,0.0,0.0,0.0,1.272,0.0,0.0,0.0,0.0,0.0,0.0,0.0,0.0,0.0,0.0,0.0,0.0,0.0,0.0,0.0,0.0,0.0,0.0,0.0,0.0,2.0748,2.1082,2.0795,2.0755,2.1089,2.1109,2.1109,2.1109,2.1109,2.1109,2.1109,2.1109,2.1109,2.1109,2.1109,2.1109,2.1109,2.1109,2.1109,2.1109,2.1109,2.1109,2.1109,2.1109,2.1109,2.1109,2.1109,2.1109,2.0849,1.9158,1.825,1.7602,1.4362,1.3062,1.2545,1.1111,1.0721,1.0721,1.0721,1.0721,1.0721,1.0721,1.0721,1.0721,1.0721,1.0721,1.0721,1.0721,1.0721,1.0721,1.0721,1.0721,1.0721,1.0721,1.0721,1.0721,1.0721,1.0721,1.0721,1.0721,1.0721,1.0721,1.0721,1.0721,1.0721,1.0721,0.951,0.6293,0.0538,0.0,0.0,0.0,0.0,0.0,0.0,0.0,0.0,0.0,0.0,0.0,0.0,0.0,0.0,0.0,0.0,0.0,0.0,0.0,0.0,0.0,1.4503,0.0,0.0,0.0,1.0194,0.988,0.0,0.0,0.0,0.0,0.0,0.0,0.0,0.0,0.0,0.0,0.0,0.0,0.0,0.0,0.0,0.0,0.0,2.0995,1.9666,1.9466,2.1029,2.1109,2.1109,2.1109,2.1109,2.1109,2.1109,2.1109,2.1109,2.1109,2.1109,2.1109,2.1109,2.1109,2.1109,2.1109,2.1109,2.1109,2.1109,2.1109,2.1109,2.1109,2.1109,2.1109,2.0849,1.9158,1.7468,1.5918,1.397,1.2281,1.0982,1.0717,1.0721,1.0721,1.0721,1.0721,1.0721,1.0721,1.0721,1.0721,1.0721,1.0721,1.0721,1.0721,1.0721,1.0721,1.0721,1.0721,1.0721,1.0721,1.0721,1.0721,1.0721,1.0721,1.0721,1.0721,1.0721,1.0721,1.0721,1.0721,1.0721,1.0721,0.4958,0.0941,0.0135,0.0,0.0,0.0,0.0,0.0,0.0,0.0,0.0,0.0,0.0,0.0,0.0,0.0,0.0,0.0,0.0,0.0,0.0,0.0,0.0,0.0,0.0,0.0,1.0946,0.0,0.9379,0.0,0.0,0.0,0.0,0.0,0.0,0.0,0.0,0.0,0.0,0.0,0.0,0.0,0.0,0.0,0.0,0.0,0.0,0.0,0.0,1.9259,2.1015,2.1109,2.1109,2.1109,2.1109,2.1109,2.1109,2.1109,2.1109,2.1109,2.1109,2.1109,2.1109,2.1109,2.1109,2.1109,2.1109,2.1109,2.1109,2.1109,2.1109,2.1109,2.1109,2.0462,1.9413,1.7597,1.5913,1.4101,1.2413,1.1372,1.0721,1.0721,1.0721,1.0721,1.0721,1.0721,1.0721,1.0721,1.0721,1.0721,1.0721,1.0721,1.0721,1.0721,1.0721,1.0721,1.0721,1.0721,1.0721,1.0721,1.0721,1.0721,1.0721,1.0721,1.0721,1.0721,1.0721,1.0721,1.0721,1.0721,1.0721,1.0721,0.4289,0.0,0.0,0.0,0.0,0.0,0.0,0.0,0.0,0.0,0.0,0.0,0.0,0.0,0.0,0.0,0.0,0.0,0.0,0.0,1.9141,0.0,0.0,0.0,0.0,0.0,0.0,0.0,0.0,0.0,0.0,0.0,0.0,0.0,0.0,0.0,0.0,0.0,0.0,0.0,0.0,0.0,0.0,0.0,0.0,0.0,0.0,0.0,0.0,0.0,2.0989,2.1109,2.1109,2.1109,2.1109,2.1109,2.1109,2.1109,2.1109,2.1109,2.1109,2.1109,2.1109,2.1109,2.1109,2.1109,2.1109,2.1109,2.1109,2.1109,2.0849,2.0329,2.0329,1.903,1.6953,1.6172,1.4749,1.3062,1.124,1.0721,1.0721,1.0721,1.0721,1.0721,1.0721,1.0721,1.0721,1.0721,1.0721,1.0721,1.0721,1.0721,1.0721,1.0721,1.0721,1.0721,1.0721,1.0721,1.0721,1.0721,1.0721,1.0721,1.0721,1.0721,1.0721,1.0721,1.0721,1.0721,1.0721,1.0721,0.9911,0.8033,0.3086,0.0,0.0,0.0,0.0,0.0,0.0,0.0,0.0,0.0,0.0,0.0,0.0,0.0,0.0,0.0,0.0,0.0,0.0,0.0,0.0,0.0,0.0,1.6449,0.0,0.0,0.0,0.0,1.0409,0.0,0.0,0.0,0.0,0.0,0.0,0.0,0.0,0.0,0.0,0.0,0.0,0.0,0.0,0.0,0.0,0.0,0.0,0.0,0.0,0.0,2.0922,2.1109,2.1109,2.1109,2.1109,2.1109,2.1109,2.1109,2.1109,2.1109,2.1109,2.1109,2.1109,2.1109,2.1109,2.1109,2.1109,2.1109,2.1109,2.1109,2.0068,1.8634,1.8634,1.6431,1.3713,1.5265,1.4749,1.3062,1.124,1.0721,1.0721,1.0721,1.0721,1.0721,1.0721,1.0721,1.0721,1.0721,1.0721,1.0721,1.0721,1.0721,1.0721,1.0721,1.0721,1.0721,1.0721,1.0721,1.0721,1.0721,1.0721,1.0721,1.0721,1.0721,1.0721,1.0721,1.0721,1.0721,1.0721,1.0721,0.8033,0.1075,0.0135,0.0,0.0,0.0,0.0,0.0,0.0,0.0,0.0,0.0,0.0,0.0,0.0,0.0,0.0,0.0,0.0,0.0,0.0,0.0,0.0,0.0,2.4195,1.985,0.0,0.0,0.0,0.0,0.0,0.0,0.0,0.0,0.0,0.0,0.0,0.0,0.0,0.0,0.0,0.0,0.0,0.0,0.0,0.0,0.0,0.0,0.0,0.0,0.0,0.0,0.0,2.1109,2.1109,2.1109,2.1109,2.1109,2.1109,2.1109,2.1109,2.1109,2.1109,2.1109,2.1109,2.1109,2.1109,2.1109,2.1109,2.1109,2.1109,2.1109,2.0068,1.8506,1.8506,1.6431,1.332,1.397,1.3062,1.1505,1.085,1.0721,1.0721,1.0721,1.0721,1.0721,1.0721,1.0721,1.0721,1.0721,1.0721,1.0721,1.0721,1.0721,1.0721,1.0721,1.0721,1.0721,1.0721,1.0721,1.0721,1.0721,1.0721,1.0721,1.0721,1.0721,1.0721,1.0721,1.0721,1.0721,1.0721,1.0721,0.79,0.0807,0.0,0.0,0.0,0.0,0.0,0.0,0.0,0.0,0.0,0.0,0.0,0.0,0.0,0.0,0.0,0.0,0.0,0.0,0.0,0.0,2.4648,2.542,0.0,2.1934,2.0652,0.0,1.5762,0.0,0.0,0.0,0.0,0.0,0.0,0.0,0.0,0.0,0.0,0.0,0.0,0.0,0.0,0.0,0.0,0.0,0.0,0.0,0.0,0.0,0.0,0.0,0.0,0.0,2.1109,2.1109,2.1109,2.1109,2.1109,2.1109,2.1109,2.1109,2.1109,2.1109,2.1109,2.1109,2.1109,2.1109,2.1109,2.0716,2.0195,2.0195,1.8768,1.6695,1.6695,1.4879,1.2413,1.3062,1.2153,1.0721,1.0721,1.0721,1.0721,1.0721,1.0721,1.0721,1.0721,1.0721,1.0721,1.0721,1.0721,1.0721,1.0721,1.0721,1.0721,1.0721,1.0721,1.0721,1.0721,1.0721,1.0721,1.0721,1.0721,1.0721,1.0721,1.0721,1.0721,1.0721,1.0721,1.0721,1.0721,0.8437,0.5091,0.0538,0.0,0.0,0.0,0.0,0.0,0.0,0.0,0.0,0.0,0.0,0.0,0.0,0.0,0.0,0.0,0.0,0.0,0.0,0.0,0.0]}]]